<?xml version="1.0" encoding="UTF-8" standalone="no" ?>
<gpx xmlns="http://www.topografix.com/GPX/1/1" xmlns:xsi="http://www.w3.org/2001/XMLSchema-instance" xsi:schemaLocation="http://www.topografix.com/GPX/1/1 http://www.topografix.com/GPX/1/1/gpx.xsd" version="1.1" creator="VisuGPX - https://www.visugpx.com">
  <metadata>
    <name>242011</name>
    <desc><![CDATA[Balade vendéenne 4]]></desc>
  </metadata>
  <trk>
    <name><![CDATA[ACTIVE LOG094012]]></name>
    <trkseg>
      <trkpt lat="46.82217" lon="-2.1306">
        <ele>-4.476</ele>
        <time>2011-08-09T07:40:12Z</time>
      </trkpt>
      <trkpt lat="46.82217" lon="-2.1306">
        <ele>-4.476</ele>
        <time>2011-08-09T07:40:19Z</time>
      </trkpt>
    </trkseg>
  </trk>
  <trk>
    <name><![CDATA[ACTIVE LOG094133]]></name>
    <trkseg>
      <trkpt lat="46.82313" lon="-2.13052">
        <ele>-2.679</ele>
        <time>2011-08-09T07:41:33Z</time>
      </trkpt>
    </trkseg>
  </trk>
  <trk>
    <name><![CDATA[ACTIVE LOG094148]]></name>
    <trkseg>
      <trkpt lat="46.823" lon="-2.1305">
        <ele>-3.298</ele>
        <time>2011-08-09T07:41:46Z</time>
      </trkpt>
      <trkpt lat="46.82276" lon="-2.1305">
        <ele>-4.814</ele>
        <time>2011-08-09T07:42:14Z</time>
      </trkpt>
      <trkpt lat="46.82271" lon="-2.13057">
        <ele>-3.757</ele>
        <time>2011-08-09T07:42:37Z</time>
      </trkpt>
    </trkseg>
  </trk>
  <trk>
    <name><![CDATA[ACTIVE LOG094245]]></name>
    <trkseg>
      <trkpt lat="46.82264" lon="-2.13064">
        <ele>-3.683</ele>
        <time>2011-08-09T07:42:44Z</time>
      </trkpt>
    </trkseg>
  </trk>
  <trk>
    <name><![CDATA[ACTIVE LOG094246]]></name>
    <trkseg>
      <trkpt lat="46.8226" lon="-2.13067">
        <ele>-3.588</ele>
        <time>2011-08-09T07:42:46Z</time>
      </trkpt>
    </trkseg>
  </trk>
  <trk>
    <name><![CDATA[ACTIVE LOG094248]]></name>
    <trkseg>
      <trkpt lat="46.82255" lon="-2.13069">
        <ele>-2.991</ele>
        <time>2011-08-09T07:42:47Z</time>
      </trkpt>
      <trkpt lat="46.82255" lon="-2.1307">
        <ele>-3.06</ele>
        <time>2011-08-09T07:42:48Z</time>
      </trkpt>
      <trkpt lat="46.82252" lon="-2.13071">
        <ele>-3.033</ele>
        <time>2011-08-09T07:42:50Z</time>
      </trkpt>
      <trkpt lat="46.82244" lon="-2.13075">
        <ele>-2.854</ele>
        <time>2011-08-09T07:43:02Z</time>
      </trkpt>
      <trkpt lat="46.82233" lon="-2.13073">
        <ele>-3.324</ele>
        <time>2011-08-09T07:43:41Z</time>
      </trkpt>
      <trkpt lat="46.82234" lon="-2.1308">
        <ele>-3.218</ele>
        <time>2011-08-09T07:44:12Z</time>
      </trkpt>
      <trkpt lat="46.82227" lon="-2.13082">
        <ele>-3.292</ele>
        <time>2011-08-09T07:44:49Z</time>
      </trkpt>
      <trkpt lat="46.8223" lon="-2.1309">
        <ele>-3.419</ele>
        <time>2011-08-09T07:46:08Z</time>
      </trkpt>
      <trkpt lat="46.8223" lon="-2.1308">
        <ele>-3.366</ele>
        <time>2011-08-09T07:46:34Z</time>
      </trkpt>
      <trkpt lat="46.82216" lon="-2.13084">
        <ele>-0.251</ele>
        <time>2011-08-09T07:48:00Z</time>
      </trkpt>
      <trkpt lat="46.82215" lon="-2.13085">
        <ele>3.02</ele>
        <time>2011-08-09T07:48:07Z</time>
      </trkpt>
      <trkpt lat="46.82214" lon="-2.13085">
        <ele>6.334</ele>
        <time>2011-08-09T07:48:15Z</time>
      </trkpt>
      <trkpt lat="46.82214" lon="-2.13085">
        <ele>9.427</ele>
        <time>2011-08-09T07:48:25Z</time>
      </trkpt>
      <trkpt lat="46.82214" lon="-2.13084">
        <ele>13.1</ele>
        <time>2011-08-09T07:48:41Z</time>
      </trkpt>
      <trkpt lat="46.82213" lon="-2.13083">
        <ele>12.869</ele>
        <time>2011-08-09T07:49:01Z</time>
      </trkpt>
      <trkpt lat="46.82206" lon="-2.1308">
        <ele>12.709</ele>
        <time>2011-08-09T07:49:13Z</time>
      </trkpt>
      <trkpt lat="46.82198" lon="-2.13082">
        <ele>12.728</ele>
        <time>2011-08-09T07:49:19Z</time>
      </trkpt>
      <trkpt lat="46.82182" lon="-2.13098">
        <ele>14.04</ele>
        <time>2011-08-09T07:49:35Z</time>
      </trkpt>
      <trkpt lat="46.82181" lon="-2.13098">
        <ele>10.579</ele>
        <time>2011-08-09T07:49:40Z</time>
      </trkpt>
      <trkpt lat="46.82181" lon="-2.13098">
        <ele>14.782</ele>
        <time>2011-08-09T07:49:41Z</time>
      </trkpt>
      <trkpt lat="46.82181" lon="-2.13098">
        <ele>11.344</ele>
        <time>2011-08-09T07:49:44Z</time>
      </trkpt>
      <trkpt lat="46.82181" lon="-2.13098">
        <ele>12.938</ele>
        <time>2011-08-09T07:49:45Z</time>
      </trkpt>
      <trkpt lat="46.82181" lon="-2.13098">
        <ele>15.997</ele>
        <time>2011-08-09T07:49:46Z</time>
      </trkpt>
      <trkpt lat="46.82181" lon="-2.13098">
        <ele>12.359</ele>
        <time>2011-08-09T07:49:47Z</time>
      </trkpt>
      <trkpt lat="46.8218" lon="-2.13098">
        <ele>15.747</ele>
        <time>2011-08-09T07:49:49Z</time>
      </trkpt>
      <trkpt lat="46.82178" lon="-2.13097">
        <ele>12.721</ele>
        <time>2011-08-09T07:50:11Z</time>
      </trkpt>
    </trkseg>
  </trk>
  <trk>
    <name><![CDATA[ACTIVE LOG095015]]></name>
    <trkseg>
      <trkpt lat="46.82178" lon="-2.13097">
        <ele>14.23</ele>
        <time>2011-08-09T07:50:13Z</time>
      </trkpt>
      <trkpt lat="46.82178" lon="-2.131">
        <ele>13.363</ele>
        <time>2011-08-09T07:50:32Z</time>
      </trkpt>
      <trkpt lat="46.82176" lon="-2.13107">
        <ele>13.824</ele>
        <time>2011-08-09T07:50:41Z</time>
      </trkpt>
      <trkpt lat="46.82176" lon="-2.13107">
        <ele>13.535</ele>
        <time>2011-08-09T07:50:45Z</time>
      </trkpt>
      <trkpt lat="46.82131" lon="-2.13087">
        <ele>12.902</ele>
        <time>2011-08-09T07:51:00Z</time>
      </trkpt>
      <trkpt lat="46.82094" lon="-2.13062">
        <ele>11.89</ele>
        <time>2011-08-09T07:51:10Z</time>
      </trkpt>
      <trkpt lat="46.81963" lon="-2.12902">
        <ele>10.173</ele>
        <time>2011-08-09T07:51:38Z</time>
      </trkpt>
      <trkpt lat="46.8183" lon="-2.12729">
        <ele>8.593</ele>
        <time>2011-08-09T07:52:07Z</time>
      </trkpt>
      <trkpt lat="46.817" lon="-2.12565">
        <ele>8.496</ele>
        <time>2011-08-09T07:52:35Z</time>
      </trkpt>
      <trkpt lat="46.81678" lon="-2.12536">
        <ele>8.225</ele>
        <time>2011-08-09T07:52:40Z</time>
      </trkpt>
      <trkpt lat="46.81577" lon="-2.12404">
        <ele>8.485</ele>
        <time>2011-08-09T07:53:02Z</time>
      </trkpt>
      <trkpt lat="46.81483" lon="-2.12249">
        <ele>7.454</ele>
        <time>2011-08-09T07:53:25Z</time>
      </trkpt>
      <trkpt lat="46.81337" lon="-2.11978">
        <ele>8.002</ele>
        <time>2011-08-09T07:54:03Z</time>
      </trkpt>
      <trkpt lat="46.81242" lon="-2.11795">
        <ele>8.67</ele>
        <time>2011-08-09T07:54:27Z</time>
      </trkpt>
      <trkpt lat="46.81184" lon="-2.11674">
        <ele>7.786</ele>
        <time>2011-08-09T07:54:42Z</time>
      </trkpt>
      <trkpt lat="46.8118" lon="-2.11663">
        <ele>7.023</ele>
        <time>2011-08-09T07:54:45Z</time>
      </trkpt>
      <trkpt lat="46.81163" lon="-2.11615">
        <ele>7.115</ele>
        <time>2011-08-09T07:54:49Z</time>
      </trkpt>
      <trkpt lat="46.81132" lon="-2.11516">
        <ele>6.628</ele>
        <time>2011-08-09T07:55:00Z</time>
      </trkpt>
      <trkpt lat="46.81068" lon="-2.11311">
        <ele>7.391</ele>
        <time>2011-08-09T07:55:22Z</time>
      </trkpt>
      <trkpt lat="46.80996" lon="-2.11076">
        <ele>7.237</ele>
        <time>2011-08-09T07:55:48Z</time>
      </trkpt>
      <trkpt lat="46.80923" lon="-2.10834">
        <ele>6.958</ele>
        <time>2011-08-09T07:56:13Z</time>
      </trkpt>
      <trkpt lat="46.8082" lon="-2.10491">
        <ele>6.299</ele>
        <time>2011-08-09T07:56:48Z</time>
      </trkpt>
      <trkpt lat="46.80723" lon="-2.10166">
        <ele>6.16</ele>
        <time>2011-08-09T07:57:19Z</time>
      </trkpt>
      <trkpt lat="46.80623" lon="-2.09838">
        <ele>6.473</ele>
        <time>2011-08-09T07:57:51Z</time>
      </trkpt>
      <trkpt lat="46.80524" lon="-2.09516">
        <ele>6.826</ele>
        <time>2011-08-09T07:58:23Z</time>
      </trkpt>
      <trkpt lat="46.80418" lon="-2.09156">
        <ele>6.309</ele>
        <time>2011-08-09T07:58:58Z</time>
      </trkpt>
      <trkpt lat="46.80324" lon="-2.08839">
        <ele>6.013</ele>
        <time>2011-08-09T07:59:29Z</time>
      </trkpt>
      <trkpt lat="46.80229" lon="-2.08512">
        <ele>6.326</ele>
        <time>2011-08-09T08:00:01Z</time>
      </trkpt>
      <trkpt lat="46.80167" lon="-2.08305">
        <ele>6.797</ele>
        <time>2011-08-09T08:00:21Z</time>
      </trkpt>
      <trkpt lat="46.80099" lon="-2.08084">
        <ele>5.936</ele>
        <time>2011-08-09T08:00:45Z</time>
      </trkpt>
      <trkpt lat="46.80011" lon="-2.0778">
        <ele>5.105</ele>
        <time>2011-08-09T08:01:12Z</time>
      </trkpt>
      <trkpt lat="46.79951" lon="-2.07579">
        <ele>5.616</ele>
        <time>2011-08-09T08:01:33Z</time>
      </trkpt>
      <trkpt lat="46.79894" lon="-2.074">
        <ele>5.596</ele>
        <time>2011-08-09T08:01:52Z</time>
      </trkpt>
      <trkpt lat="46.79825" lon="-2.07242">
        <ele>5.774</ele>
        <time>2011-08-09T08:02:10Z</time>
      </trkpt>
      <trkpt lat="46.79715" lon="-2.07076">
        <ele>6.805</ele>
        <time>2011-08-09T08:02:35Z</time>
      </trkpt>
      <trkpt lat="46.79665" lon="-2.06989">
        <ele>7.352</ele>
        <time>2011-08-09T08:02:49Z</time>
      </trkpt>
      <trkpt lat="46.79669" lon="-2.06951">
        <ele>6.24</ele>
        <time>2011-08-09T08:02:55Z</time>
      </trkpt>
      <trkpt lat="46.79776" lon="-2.069">
        <ele>4.887</ele>
        <time>2011-08-09T08:03:11Z</time>
      </trkpt>
      <trkpt lat="46.79821" lon="-2.06874">
        <ele>4.782</ele>
        <time>2011-08-09T08:03:18Z</time>
      </trkpt>
      <trkpt lat="46.7998" lon="-2.06785">
        <ele>5.595</ele>
        <time>2011-08-09T08:03:43Z</time>
      </trkpt>
      <trkpt lat="46.80001" lon="-2.06775">
        <ele>5.626</ele>
        <time>2011-08-09T08:03:47Z</time>
      </trkpt>
      <trkpt lat="46.80019" lon="-2.06766">
        <ele>5.375</ele>
        <time>2011-08-09T08:03:50Z</time>
      </trkpt>
      <trkpt lat="46.80031" lon="-2.0676">
        <ele>5.288</ele>
        <time>2011-08-09T08:03:52Z</time>
      </trkpt>
      <trkpt lat="46.8011" lon="-2.06712">
        <ele>5.671</ele>
        <time>2011-08-09T08:04:05Z</time>
      </trkpt>
      <trkpt lat="46.80127" lon="-2.06691">
        <ele>6.32</ele>
        <time>2011-08-09T08:04:09Z</time>
      </trkpt>
      <trkpt lat="46.80133" lon="-2.06679">
        <ele>7.635</ele>
        <time>2011-08-09T08:04:12Z</time>
      </trkpt>
      <trkpt lat="46.80135" lon="-2.06672">
        <ele>7.792</ele>
        <time>2011-08-09T08:04:14Z</time>
      </trkpt>
      <trkpt lat="46.80136" lon="-2.0667">
        <ele>8.668</ele>
        <time>2011-08-09T08:04:22Z</time>
      </trkpt>
      <trkpt lat="46.80146" lon="-2.0668">
        <ele>5.931</ele>
        <time>2011-08-09T08:04:28Z</time>
      </trkpt>
      <trkpt lat="46.8016" lon="-2.06692">
        <ele>5.812</ele>
        <time>2011-08-09T08:04:33Z</time>
      </trkpt>
      <trkpt lat="46.80202" lon="-2.06689">
        <ele>6.727</ele>
        <time>2011-08-09T08:04:42Z</time>
      </trkpt>
      <trkpt lat="46.8022" lon="-2.0668">
        <ele>5.334</ele>
        <time>2011-08-09T08:04:45Z</time>
      </trkpt>
      <trkpt lat="46.80313" lon="-2.06663">
        <ele>5.267</ele>
        <time>2011-08-09T08:04:59Z</time>
      </trkpt>
      <trkpt lat="46.80399" lon="-2.06625">
        <ele>6.054</ele>
        <time>2011-08-09T08:05:14Z</time>
      </trkpt>
      <trkpt lat="46.80445" lon="-2.06594">
        <ele>5.759</ele>
        <time>2011-08-09T08:05:32Z</time>
      </trkpt>
      <trkpt lat="46.80445" lon="-2.06594">
        <ele>6.051</ele>
        <time>2011-08-09T08:05:34Z</time>
      </trkpt>
      <trkpt lat="46.80443" lon="-2.06602">
        <ele>5.995</ele>
        <time>2011-08-09T08:05:39Z</time>
      </trkpt>
      <trkpt lat="46.80399" lon="-2.06625">
        <ele>4.231</ele>
        <time>2011-08-09T08:05:52Z</time>
      </trkpt>
      <trkpt lat="46.80374" lon="-2.06638">
        <ele>5.168</ele>
        <time>2011-08-09T08:05:56Z</time>
      </trkpt>
      <trkpt lat="46.80284" lon="-2.06668">
        <ele>4.384</ele>
        <time>2011-08-09T08:06:11Z</time>
      </trkpt>
      <trkpt lat="46.80262" lon="-2.06672">
        <ele>4.72</ele>
        <time>2011-08-09T08:06:16Z</time>
      </trkpt>
      <trkpt lat="46.80197" lon="-2.06691">
        <ele>5.471</ele>
        <time>2011-08-09T08:06:25Z</time>
      </trkpt>
      <trkpt lat="46.80186" lon="-2.06697">
        <ele>6.192</ele>
        <time>2011-08-09T08:06:27Z</time>
      </trkpt>
      <trkpt lat="46.80156" lon="-2.06697">
        <ele>7.949</ele>
        <time>2011-08-09T08:06:33Z</time>
      </trkpt>
      <trkpt lat="46.80141" lon="-2.06693">
        <ele>6.972</ele>
        <time>2011-08-09T08:06:39Z</time>
      </trkpt>
      <trkpt lat="46.80137" lon="-2.06656">
        <ele>5.953</ele>
        <time>2011-08-09T08:06:43Z</time>
      </trkpt>
      <trkpt lat="46.80137" lon="-2.06638">
        <ele>6.042</ele>
        <time>2011-08-09T08:06:45Z</time>
      </trkpt>
      <trkpt lat="46.80137" lon="-2.06618">
        <ele>6.033</ele>
        <time>2011-08-09T08:06:47Z</time>
      </trkpt>
      <trkpt lat="46.80103" lon="-2.06473">
        <ele>5.659</ele>
        <time>2011-08-09T08:07:02Z</time>
      </trkpt>
      <trkpt lat="46.80026" lon="-2.06202">
        <ele>5.336</ele>
        <time>2011-08-09T08:07:29Z</time>
      </trkpt>
      <trkpt lat="46.79951" lon="-2.05928">
        <ele>5.139</ele>
        <time>2011-08-09T08:07:55Z</time>
      </trkpt>
      <trkpt lat="46.79872" lon="-2.05626">
        <ele>3.933</ele>
        <time>2011-08-09T08:08:22Z</time>
      </trkpt>
      <trkpt lat="46.79858" lon="-2.05573">
        <ele>4.633</ele>
        <time>2011-08-09T08:08:30Z</time>
      </trkpt>
      <trkpt lat="46.79811" lon="-2.05504">
        <ele>4.286</ele>
        <time>2011-08-09T08:08:37Z</time>
      </trkpt>
      <trkpt lat="46.79817" lon="-2.05485">
        <ele>4.028</ele>
        <time>2011-08-09T08:08:39Z</time>
      </trkpt>
      <trkpt lat="46.79795" lon="-2.0536">
        <ele>4.245</ele>
        <time>2011-08-09T08:08:51Z</time>
      </trkpt>
      <trkpt lat="46.79724" lon="-2.05064">
        <ele>5.229</ele>
        <time>2011-08-09T08:09:19Z</time>
      </trkpt>
      <trkpt lat="46.79716" lon="-2.04879">
        <ele>3.55</ele>
        <time>2011-08-09T08:09:35Z</time>
      </trkpt>
      <trkpt lat="46.7972" lon="-2.04774">
        <ele>3.04</ele>
        <time>2011-08-09T08:09:44Z</time>
      </trkpt>
      <trkpt lat="46.79691" lon="-2.04694">
        <ele>3.373</ele>
        <time>2011-08-09T08:09:53Z</time>
      </trkpt>
      <trkpt lat="46.79687" lon="-2.04689">
        <ele>3.23</ele>
        <time>2011-08-09T08:09:55Z</time>
      </trkpt>
      <trkpt lat="46.79661" lon="-2.04695">
        <ele>3.247</ele>
        <time>2011-08-09T08:09:57Z</time>
      </trkpt>
      <trkpt lat="46.79631" lon="-2.04649">
        <ele>4.344</ele>
        <time>2011-08-09T08:10:04Z</time>
      </trkpt>
      <trkpt lat="46.79633" lon="-2.04641">
        <ele>4.245</ele>
        <time>2011-08-09T08:10:05Z</time>
      </trkpt>
      <trkpt lat="46.79626" lon="-2.04588">
        <ele>4.33</ele>
        <time>2011-08-09T08:10:10Z</time>
      </trkpt>
      <trkpt lat="46.79617" lon="-2.04572">
        <ele>4.387</ele>
        <time>2011-08-09T08:10:12Z</time>
      </trkpt>
      <trkpt lat="46.79609" lon="-2.04513">
        <ele>3.746</ele>
        <time>2011-08-09T08:10:18Z</time>
      </trkpt>
      <trkpt lat="46.79595" lon="-2.04249">
        <ele>3.162</ele>
        <time>2011-08-09T08:10:42Z</time>
      </trkpt>
      <trkpt lat="46.79589" lon="-2.04216">
        <ele>-0.246</ele>
        <time>2011-08-09T08:10:45Z</time>
      </trkpt>
      <trkpt lat="46.79587" lon="-2.04205">
        <ele>1.72</ele>
        <time>2011-08-09T08:10:46Z</time>
      </trkpt>
      <trkpt lat="46.79578" lon="-2.04152">
        <ele>3.207</ele>
        <time>2011-08-09T08:10:51Z</time>
      </trkpt>
      <trkpt lat="46.79525" lon="-2.03842">
        <ele>3.607</ele>
        <time>2011-08-09T08:11:20Z</time>
      </trkpt>
      <trkpt lat="46.79515" lon="-2.03765">
        <ele>1.901</ele>
        <time>2011-08-09T08:11:27Z</time>
      </trkpt>
      <trkpt lat="46.79484" lon="-2.03459">
        <ele>2.852</ele>
        <time>2011-08-09T08:11:55Z</time>
      </trkpt>
      <trkpt lat="46.79434" lon="-2.03244">
        <ele>3.763</ele>
        <time>2011-08-09T08:12:15Z</time>
      </trkpt>
      <trkpt lat="46.79375" lon="-2.03115">
        <ele>4.293</ele>
        <time>2011-08-09T08:12:29Z</time>
      </trkpt>
      <trkpt lat="46.79365" lon="-2.03101">
        <ele>4.383</ele>
        <time>2011-08-09T08:12:34Z</time>
      </trkpt>
      <trkpt lat="46.79339" lon="-2.03012">
        <ele>3.817</ele>
        <time>2011-08-09T08:12:41Z</time>
      </trkpt>
      <trkpt lat="46.79376" lon="-2.02998">
        <ele>2.449</ele>
        <time>2011-08-09T08:12:46Z</time>
      </trkpt>
      <trkpt lat="46.79385" lon="-2.03006">
        <ele>2.582</ele>
        <time>2011-08-09T08:12:48Z</time>
      </trkpt>
      <trkpt lat="46.79406" lon="-2.02987">
        <ele>4.024</ele>
        <time>2011-08-09T08:12:50Z</time>
      </trkpt>
      <trkpt lat="46.79473" lon="-2.02861">
        <ele>3.769</ele>
        <time>2011-08-09T08:13:05Z</time>
      </trkpt>
      <trkpt lat="46.79539" lon="-2.02664">
        <ele>4.948</ele>
        <time>2011-08-09T08:13:25Z</time>
      </trkpt>
      <trkpt lat="46.79603" lon="-2.02357">
        <ele>4.778</ele>
        <time>2011-08-09T08:13:54Z</time>
      </trkpt>
      <trkpt lat="46.79636" lon="-2.02053">
        <ele>4.955</ele>
        <time>2011-08-09T08:14:21Z</time>
      </trkpt>
      <trkpt lat="46.7966" lon="-2.01674">
        <ele>4.69</ele>
        <time>2011-08-09T08:14:52Z</time>
      </trkpt>
      <trkpt lat="46.79653" lon="-2.01404">
        <ele>3.96</ele>
        <time>2011-08-09T08:15:13Z</time>
      </trkpt>
      <trkpt lat="46.79613" lon="-2.01127">
        <ele>4.052</ele>
        <time>2011-08-09T08:15:35Z</time>
      </trkpt>
      <trkpt lat="46.79611" lon="-2.01116">
        <ele>4.045</ele>
        <time>2011-08-09T08:15:36Z</time>
      </trkpt>
      <trkpt lat="46.79605" lon="-2.01084">
        <ele>3.824</ele>
        <time>2011-08-09T08:15:40Z</time>
      </trkpt>
      <trkpt lat="46.79587" lon="-2.01041">
        <ele>3.866</ele>
        <time>2011-08-09T08:15:44Z</time>
      </trkpt>
      <trkpt lat="46.79592" lon="-2.01033">
        <ele>3.982</ele>
        <time>2011-08-09T08:15:46Z</time>
      </trkpt>
      <trkpt lat="46.79587" lon="-2.00777">
        <ele>3.335</ele>
        <time>2011-08-09T08:16:04Z</time>
      </trkpt>
      <trkpt lat="46.79612" lon="-2.00526">
        <ele>3.135</ele>
        <time>2011-08-09T08:16:24Z</time>
      </trkpt>
      <trkpt lat="46.79657" lon="-2.00331">
        <ele>3.723</ele>
        <time>2011-08-09T08:16:42Z</time>
      </trkpt>
      <trkpt lat="46.79755" lon="-1.9993">
        <ele>4.003</ele>
        <time>2011-08-09T08:17:18Z</time>
      </trkpt>
      <trkpt lat="46.79842" lon="-1.99585">
        <ele>3.445</ele>
        <time>2011-08-09T08:17:48Z</time>
      </trkpt>
      <trkpt lat="46.79938" lon="-1.99204">
        <ele>3.446</ele>
        <time>2011-08-09T08:18:20Z</time>
      </trkpt>
      <trkpt lat="46.80005" lon="-1.98979">
        <ele>2.221</ele>
        <time>2011-08-09T08:18:40Z</time>
      </trkpt>
      <trkpt lat="46.80108" lon="-1.98755">
        <ele>3.211</ele>
        <time>2011-08-09T08:19:03Z</time>
      </trkpt>
      <trkpt lat="46.80208" lon="-1.98596">
        <ele>2.038</ele>
        <time>2011-08-09T08:19:22Z</time>
      </trkpt>
      <trkpt lat="46.80338" lon="-1.98451">
        <ele>1.952</ele>
        <time>2011-08-09T08:19:43Z</time>
      </trkpt>
      <trkpt lat="46.80442" lon="-1.98372">
        <ele>1.522</ele>
        <time>2011-08-09T08:19:59Z</time>
      </trkpt>
      <trkpt lat="46.8047" lon="-1.9832">
        <ele>2.38</ele>
        <time>2011-08-09T08:20:05Z</time>
      </trkpt>
      <trkpt lat="46.80481" lon="-1.9832">
        <ele>2.527</ele>
        <time>2011-08-09T08:20:08Z</time>
      </trkpt>
      <trkpt lat="46.80576" lon="-1.98144">
        <ele>3.582</ele>
        <time>2011-08-09T08:20:28Z</time>
      </trkpt>
      <trkpt lat="46.80716" lon="-1.97938">
        <ele>2.531</ele>
        <time>2011-08-09T08:20:54Z</time>
      </trkpt>
      <trkpt lat="46.8083" lon="-1.97775">
        <ele>3.776</ele>
        <time>2011-08-09T08:21:15Z</time>
      </trkpt>
      <trkpt lat="46.80991" lon="-1.97544">
        <ele>2.124</ele>
        <time>2011-08-09T08:21:46Z</time>
      </trkpt>
      <trkpt lat="46.81114" lon="-1.97368">
        <ele>1.905</ele>
        <time>2011-08-09T08:22:11Z</time>
      </trkpt>
      <trkpt lat="46.81118" lon="-1.97361">
        <ele>7.899</ele>
        <time>2011-08-09T08:22:12Z</time>
      </trkpt>
      <trkpt lat="46.81123" lon="-1.97354">
        <ele>7.101</ele>
        <time>2011-08-09T08:22:13Z</time>
      </trkpt>
      <trkpt lat="46.81143" lon="-1.97325">
        <ele>3.319</ele>
        <time>2011-08-09T08:22:17Z</time>
      </trkpt>
      <trkpt lat="46.81289" lon="-1.97108">
        <ele>3.499</ele>
        <time>2011-08-09T08:22:47Z</time>
      </trkpt>
      <trkpt lat="46.81387" lon="-1.96907">
        <ele>2.912</ele>
        <time>2011-08-09T08:23:11Z</time>
      </trkpt>
      <trkpt lat="46.81454" lon="-1.96679">
        <ele>3.309</ele>
        <time>2011-08-09T08:23:34Z</time>
      </trkpt>
      <trkpt lat="46.8149" lon="-1.96403">
        <ele>3.047</ele>
        <time>2011-08-09T08:23:59Z</time>
      </trkpt>
      <trkpt lat="46.81502" lon="-1.96291">
        <ele>3.569</ele>
        <time>2011-08-09T08:24:09Z</time>
      </trkpt>
      <trkpt lat="46.8154" lon="-1.95918">
        <ele>3.28</ele>
        <time>2011-08-09T08:24:42Z</time>
      </trkpt>
      <trkpt lat="46.81571" lon="-1.95613">
        <ele>4.251</ele>
        <time>2011-08-09T08:25:08Z</time>
      </trkpt>
      <trkpt lat="46.8161" lon="-1.95293">
        <ele>2.332</ele>
        <time>2011-08-09T08:25:35Z</time>
      </trkpt>
      <trkpt lat="46.81659" lon="-1.95064">
        <ele>1.323</ele>
        <time>2011-08-09T08:25:55Z</time>
      </trkpt>
      <trkpt lat="46.81735" lon="-1.94829">
        <ele>2.296</ele>
        <time>2011-08-09T08:26:18Z</time>
      </trkpt>
      <trkpt lat="46.81785" lon="-1.94684">
        <ele>3.512</ele>
        <time>2011-08-09T08:26:33Z</time>
      </trkpt>
      <trkpt lat="46.81885" lon="-1.94397">
        <ele>3.659</ele>
        <time>2011-08-09T08:27:04Z</time>
      </trkpt>
      <trkpt lat="46.81983" lon="-1.94114">
        <ele>2.714</ele>
        <time>2011-08-09T08:27:34Z</time>
      </trkpt>
      <trkpt lat="46.82012" lon="-1.9403">
        <ele>3.388</ele>
        <time>2011-08-09T08:27:43Z</time>
      </trkpt>
      <trkpt lat="46.82015" lon="-1.94021">
        <ele>3.52</ele>
        <time>2011-08-09T08:27:44Z</time>
      </trkpt>
      <trkpt lat="46.82021" lon="-1.94003">
        <ele>3.583</ele>
        <time>2011-08-09T08:27:48Z</time>
      </trkpt>
      <trkpt lat="46.8202" lon="-1.93957">
        <ele>2.26</ele>
        <time>2011-08-09T08:27:50Z</time>
      </trkpt>
      <trkpt lat="46.82037" lon="-1.9395">
        <ele>1.369</ele>
        <time>2011-08-09T08:27:53Z</time>
      </trkpt>
      <trkpt lat="46.8205" lon="-1.93926">
        <ele>2.156</ele>
        <time>2011-08-09T08:27:55Z</time>
      </trkpt>
      <trkpt lat="46.82124" lon="-1.93657">
        <ele>3.282</ele>
        <time>2011-08-09T08:28:21Z</time>
      </trkpt>
      <trkpt lat="46.82144" lon="-1.93582">
        <ele>2.771</ele>
        <time>2011-08-09T08:28:28Z</time>
      </trkpt>
      <trkpt lat="46.82184" lon="-1.93438">
        <ele>3.415</ele>
        <time>2011-08-09T08:28:42Z</time>
      </trkpt>
      <trkpt lat="46.82257" lon="-1.93179">
        <ele>2.255</ele>
        <time>2011-08-09T08:29:08Z</time>
      </trkpt>
      <trkpt lat="46.82334" lon="-1.92902">
        <ele>2.266</ele>
        <time>2011-08-09T08:29:35Z</time>
      </trkpt>
      <trkpt lat="46.82354" lon="-1.92831">
        <ele>3.334</ele>
        <time>2011-08-09T08:29:42Z</time>
      </trkpt>
      <trkpt lat="46.82364" lon="-1.92801">
        <ele>1.839</ele>
        <time>2011-08-09T08:29:45Z</time>
      </trkpt>
      <trkpt lat="46.82374" lon="-1.92772">
        <ele>3.317</ele>
        <time>2011-08-09T08:29:48Z</time>
      </trkpt>
      <trkpt lat="46.82469" lon="-1.92545">
        <ele>2.579</ele>
        <time>2011-08-09T08:30:13Z</time>
      </trkpt>
      <trkpt lat="46.82592" lon="-1.92362">
        <ele>2.361</ele>
        <time>2011-08-09T08:30:37Z</time>
      </trkpt>
      <trkpt lat="46.8272" lon="-1.92226">
        <ele>1.883</ele>
        <time>2011-08-09T08:30:59Z</time>
      </trkpt>
      <trkpt lat="46.82871" lon="-1.92124">
        <ele>2.691</ele>
        <time>2011-08-09T08:31:23Z</time>
      </trkpt>
      <trkpt lat="46.83014" lon="-1.92067">
        <ele>0.37</ele>
        <time>2011-08-09T08:31:47Z</time>
      </trkpt>
      <trkpt lat="46.8305" lon="-1.9206">
        <ele>1.859</ele>
        <time>2011-08-09T08:31:53Z</time>
      </trkpt>
      <trkpt lat="46.83187" lon="-1.92038">
        <ele>0.845</ele>
        <time>2011-08-09T08:32:15Z</time>
      </trkpt>
      <trkpt lat="46.83188" lon="-1.92038">
        <ele>2.269</ele>
        <time>2011-08-09T08:32:18Z</time>
      </trkpt>
      <trkpt lat="46.83216" lon="-1.91996">
        <ele>1.347</ele>
        <time>2011-08-09T08:32:21Z</time>
      </trkpt>
      <trkpt lat="46.83236" lon="-1.9196">
        <ele>1.402</ele>
        <time>2011-08-09T08:32:26Z</time>
      </trkpt>
      <trkpt lat="46.83281" lon="-1.91895">
        <ele>1.492</ele>
        <time>2011-08-09T08:32:35Z</time>
      </trkpt>
      <trkpt lat="46.83296" lon="-1.91875">
        <ele>1.943</ele>
        <time>2011-08-09T08:32:40Z</time>
      </trkpt>
      <trkpt lat="46.83376" lon="-1.91633">
        <ele>1.561</ele>
        <time>2011-08-09T08:33:03Z</time>
      </trkpt>
      <trkpt lat="46.83391" lon="-1.91595">
        <ele>2.145</ele>
        <time>2011-08-09T08:33:07Z</time>
      </trkpt>
      <trkpt lat="46.83494" lon="-1.91302">
        <ele>1.758</ele>
        <time>2011-08-09T08:33:37Z</time>
      </trkpt>
      <trkpt lat="46.836" lon="-1.91003">
        <ele>0.473</ele>
        <time>2011-08-09T08:34:08Z</time>
      </trkpt>
      <trkpt lat="46.83721" lon="-1.90672">
        <ele>1.937</ele>
        <time>2011-08-09T08:34:41Z</time>
      </trkpt>
      <trkpt lat="46.8381" lon="-1.90421">
        <ele>0.202</ele>
        <time>2011-08-09T08:35:07Z</time>
      </trkpt>
      <trkpt lat="46.83823" lon="-1.90381">
        <ele>2.302</ele>
        <time>2011-08-09T08:35:11Z</time>
      </trkpt>
      <trkpt lat="46.83902" lon="-1.90163">
        <ele>1.767</ele>
        <time>2011-08-09T08:35:34Z</time>
      </trkpt>
      <trkpt lat="46.83974" lon="-1.89963">
        <ele>1.947</ele>
        <time>2011-08-09T08:35:57Z</time>
      </trkpt>
      <trkpt lat="46.84063" lon="-1.89707">
        <ele>3.405</ele>
        <time>2011-08-09T08:36:28Z</time>
      </trkpt>
      <trkpt lat="46.84073" lon="-1.89677">
        <ele>4.48</ele>
        <time>2011-08-09T08:36:32Z</time>
      </trkpt>
      <trkpt lat="46.8411" lon="-1.89561">
        <ele>4.882</ele>
        <time>2011-08-09T08:36:47Z</time>
      </trkpt>
      <trkpt lat="46.84115" lon="-1.89536">
        <ele>5.587</ele>
        <time>2011-08-09T08:36:55Z</time>
      </trkpt>
      <trkpt lat="46.8412" lon="-1.89506">
        <ele>4.664</ele>
        <time>2011-08-09T08:36:59Z</time>
      </trkpt>
      <trkpt lat="46.84129" lon="-1.89509">
        <ele>4.869</ele>
        <time>2011-08-09T08:37:01Z</time>
      </trkpt>
      <trkpt lat="46.8415" lon="-1.89481">
        <ele>4.855</ele>
        <time>2011-08-09T08:37:05Z</time>
      </trkpt>
      <trkpt lat="46.84184" lon="-1.89377">
        <ele>4.096</ele>
        <time>2011-08-09T08:37:18Z</time>
      </trkpt>
      <trkpt lat="46.84255" lon="-1.89181">
        <ele>3.72</ele>
        <time>2011-08-09T08:37:42Z</time>
      </trkpt>
      <trkpt lat="46.84266" lon="-1.89161">
        <ele>4.633</ele>
        <time>2011-08-09T08:37:45Z</time>
      </trkpt>
      <trkpt lat="46.84282" lon="-1.89137">
        <ele>3.993</ele>
        <time>2011-08-09T08:37:49Z</time>
      </trkpt>
      <trkpt lat="46.84283" lon="-1.89137">
        <ele>4.145</ele>
        <time>2011-08-09T08:37:52Z</time>
      </trkpt>
      <trkpt lat="46.84321" lon="-1.89124">
        <ele>3.505</ele>
        <time>2011-08-09T08:37:58Z</time>
      </trkpt>
      <trkpt lat="46.84327" lon="-1.8914">
        <ele>3.225</ele>
        <time>2011-08-09T08:38:00Z</time>
      </trkpt>
      <trkpt lat="46.84347" lon="-1.89187">
        <ele>2.076</ele>
        <time>2011-08-09T08:38:06Z</time>
      </trkpt>
      <trkpt lat="46.8443" lon="-1.89286">
        <ele>2.766</ele>
        <time>2011-08-09T08:38:23Z</time>
      </trkpt>
      <trkpt lat="46.84441" lon="-1.89293">
        <ele>3.448</ele>
        <time>2011-08-09T08:38:25Z</time>
      </trkpt>
      <trkpt lat="46.84492" lon="-1.89304">
        <ele>4.229</ele>
        <time>2011-08-09T08:38:34Z</time>
      </trkpt>
      <trkpt lat="46.84581" lon="-1.89275">
        <ele>6.309</ele>
        <time>2011-08-09T08:38:49Z</time>
      </trkpt>
      <trkpt lat="46.84677" lon="-1.89246">
        <ele>5.572</ele>
        <time>2011-08-09T08:39:04Z</time>
      </trkpt>
      <trkpt lat="46.84714" lon="-1.89232">
        <ele>2.368</ele>
        <time>2011-08-09T08:39:10Z</time>
      </trkpt>
      <trkpt lat="46.84716" lon="-1.89231">
        <ele>2.907</ele>
        <time>2011-08-09T08:39:11Z</time>
      </trkpt>
      <trkpt lat="46.84751" lon="-1.89217">
        <ele>5.416</ele>
        <time>2011-08-09T08:39:16Z</time>
      </trkpt>
      <trkpt lat="46.84823" lon="-1.89188">
        <ele>7.141</ele>
        <time>2011-08-09T08:39:28Z</time>
      </trkpt>
      <trkpt lat="46.8494" lon="-1.89144">
        <ele>5.879</ele>
        <time>2011-08-09T08:39:47Z</time>
      </trkpt>
      <trkpt lat="46.85033" lon="-1.89061">
        <ele>6.363</ele>
        <time>2011-08-09T08:40:03Z</time>
      </trkpt>
      <trkpt lat="46.85086" lon="-1.89014">
        <ele>4.246</ele>
        <time>2011-08-09T08:40:13Z</time>
      </trkpt>
      <trkpt lat="46.85097" lon="-1.89005">
        <ele>6.889</ele>
        <time>2011-08-09T08:40:17Z</time>
      </trkpt>
      <trkpt lat="46.85098" lon="-1.89004">
        <ele>6.738</ele>
        <time>2011-08-09T08:40:29Z</time>
      </trkpt>
      <trkpt lat="46.85115" lon="-1.88973">
        <ele>5.299</ele>
        <time>2011-08-09T08:40:40Z</time>
      </trkpt>
      <trkpt lat="46.85131" lon="-1.88943">
        <ele>5.277</ele>
        <time>2011-08-09T08:40:45Z</time>
      </trkpt>
      <trkpt lat="46.85154" lon="-1.88856">
        <ele>5.216</ele>
        <time>2011-08-09T08:40:55Z</time>
      </trkpt>
      <trkpt lat="46.85128" lon="-1.88727">
        <ele>6</ele>
        <time>2011-08-09T08:41:09Z</time>
      </trkpt>
      <trkpt lat="46.85052" lon="-1.88495">
        <ele>7.133</ele>
        <time>2011-08-09T08:41:35Z</time>
      </trkpt>
      <trkpt lat="46.85011" lon="-1.88373">
        <ele>8.067</ele>
        <time>2011-08-09T08:41:51Z</time>
      </trkpt>
      <trkpt lat="46.85008" lon="-1.88364">
        <ele>7.667</ele>
        <time>2011-08-09T08:41:54Z</time>
      </trkpt>
      <trkpt lat="46.84971" lon="-1.8823">
        <ele>7.02</ele>
        <time>2011-08-09T08:42:08Z</time>
      </trkpt>
      <trkpt lat="46.84946" lon="-1.8815">
        <ele>7.138</ele>
        <time>2011-08-09T08:42:18Z</time>
      </trkpt>
      <trkpt lat="46.84932" lon="-1.88107">
        <ele>8.353</ele>
        <time>2011-08-09T08:42:25Z</time>
      </trkpt>
      <trkpt lat="46.84904" lon="-1.88014">
        <ele>8.325</ele>
        <time>2011-08-09T08:42:40Z</time>
      </trkpt>
      <trkpt lat="46.8486" lon="-1.87881">
        <ele>9.676</ele>
        <time>2011-08-09T08:43:00Z</time>
      </trkpt>
      <trkpt lat="46.84855" lon="-1.8786">
        <ele>9.482</ele>
        <time>2011-08-09T08:43:03Z</time>
      </trkpt>
      <trkpt lat="46.84854" lon="-1.87836">
        <ele>9.709</ele>
        <time>2011-08-09T08:43:09Z</time>
      </trkpt>
      <trkpt lat="46.84858" lon="-1.87836">
        <ele>9.022</ele>
        <time>2011-08-09T08:43:12Z</time>
      </trkpt>
      <trkpt lat="46.8491" lon="-1.87776">
        <ele>8.381</ele>
        <time>2011-08-09T08:43:23Z</time>
      </trkpt>
      <trkpt lat="46.84925" lon="-1.87757">
        <ele>8.306</ele>
        <time>2011-08-09T08:43:27Z</time>
      </trkpt>
      <trkpt lat="46.84935" lon="-1.87744">
        <ele>7.557</ele>
        <time>2011-08-09T08:43:30Z</time>
      </trkpt>
      <trkpt lat="46.84957" lon="-1.87723">
        <ele>7.471</ele>
        <time>2011-08-09T08:43:35Z</time>
      </trkpt>
      <trkpt lat="46.84973" lon="-1.87702">
        <ele>5.852</ele>
        <time>2011-08-09T08:43:39Z</time>
      </trkpt>
      <trkpt lat="46.85041" lon="-1.87614">
        <ele>6.17</ele>
        <time>2011-08-09T08:43:56Z</time>
      </trkpt>
      <trkpt lat="46.85061" lon="-1.87583">
        <ele>6.998</ele>
        <time>2011-08-09T08:44:06Z</time>
      </trkpt>
      <trkpt lat="46.85064" lon="-1.87579">
        <ele>6.626</ele>
        <time>2011-08-09T08:44:08Z</time>
      </trkpt>
      <trkpt lat="46.85078" lon="-1.8755">
        <ele>6.636</ele>
        <time>2011-08-09T08:44:17Z</time>
      </trkpt>
      <trkpt lat="46.85081" lon="-1.87553">
        <ele>6.167</ele>
        <time>2011-08-09T08:44:20Z</time>
      </trkpt>
      <trkpt lat="46.85102" lon="-1.87531">
        <ele>6.84</ele>
        <time>2011-08-09T08:44:24Z</time>
      </trkpt>
      <trkpt lat="46.85104" lon="-1.87529">
        <ele>7.552</ele>
        <time>2011-08-09T08:44:36Z</time>
      </trkpt>
      <trkpt lat="46.85104" lon="-1.87529">
        <ele>7.248</ele>
        <time>2011-08-09T08:44:58Z</time>
      </trkpt>
      <trkpt lat="46.8512" lon="-1.87511">
        <ele>6.594</ele>
        <time>2011-08-09T08:45:27Z</time>
      </trkpt>
      <trkpt lat="46.85152" lon="-1.87476">
        <ele>5.008</ele>
        <time>2011-08-09T08:45:35Z</time>
      </trkpt>
      <trkpt lat="46.85215" lon="-1.87401">
        <ele>6.467</ele>
        <time>2011-08-09T08:45:49Z</time>
      </trkpt>
      <trkpt lat="46.85269" lon="-1.87339">
        <ele>7.937</ele>
        <time>2011-08-09T08:46:02Z</time>
      </trkpt>
      <trkpt lat="46.85275" lon="-1.87333">
        <ele>7.227</ele>
        <time>2011-08-09T08:46:08Z</time>
      </trkpt>
      <trkpt lat="46.85274" lon="-1.87338">
        <ele>7.651</ele>
        <time>2011-08-09T08:46:12Z</time>
      </trkpt>
      <trkpt lat="46.85241" lon="-1.87372">
        <ele>6.109</ele>
        <time>2011-08-09T08:46:22Z</time>
      </trkpt>
      <trkpt lat="46.85176" lon="-1.87469">
        <ele>6.683</ele>
        <time>2011-08-09T08:46:39Z</time>
      </trkpt>
      <trkpt lat="46.85154" lon="-1.87497">
        <ele>7.511</ele>
        <time>2011-08-09T08:46:52Z</time>
      </trkpt>
      <trkpt lat="46.85128" lon="-1.87502">
        <ele>7.251</ele>
        <time>2011-08-09T08:47:14Z</time>
      </trkpt>
      <trkpt lat="46.85106" lon="-1.87526">
        <ele>7.353</ele>
        <time>2011-08-09T08:47:32Z</time>
      </trkpt>
      <trkpt lat="46.85081" lon="-1.87553">
        <ele>6.172</ele>
        <time>2011-08-09T08:47:49Z</time>
      </trkpt>
      <trkpt lat="46.85104" lon="-1.87627">
        <ele>4.724</ele>
        <time>2011-08-09T08:47:57Z</time>
      </trkpt>
      <trkpt lat="46.85138" lon="-1.877">
        <ele>4.743</ele>
        <time>2011-08-09T08:48:07Z</time>
      </trkpt>
      <trkpt lat="46.85141" lon="-1.87841">
        <ele>3.032</ele>
        <time>2011-08-09T08:48:23Z</time>
      </trkpt>
      <trkpt lat="46.85119" lon="-1.87942">
        <ele>4.877</ele>
        <time>2011-08-09T08:48:35Z</time>
      </trkpt>
      <trkpt lat="46.85138" lon="-1.87979">
        <ele>4.638</ele>
        <time>2011-08-09T08:48:42Z</time>
      </trkpt>
      <trkpt lat="46.85163" lon="-1.87986">
        <ele>1.834</ele>
        <time>2011-08-09T08:48:46Z</time>
      </trkpt>
      <trkpt lat="46.85182" lon="-1.87991">
        <ele>3.476</ele>
        <time>2011-08-09T08:48:49Z</time>
      </trkpt>
      <trkpt lat="46.85248" lon="-1.88004">
        <ele>1.388</ele>
        <time>2011-08-09T08:48:59Z</time>
      </trkpt>
      <trkpt lat="46.85321" lon="-1.88018">
        <ele>3.451</ele>
        <time>2011-08-09T08:49:10Z</time>
      </trkpt>
      <trkpt lat="46.85484" lon="-1.88051">
        <ele>3.277</ele>
        <time>2011-08-09T08:49:36Z</time>
      </trkpt>
      <trkpt lat="46.85547" lon="-1.88063">
        <ele>3.79</ele>
        <time>2011-08-09T08:49:47Z</time>
      </trkpt>
      <trkpt lat="46.8566" lon="-1.88089">
        <ele>6.276</ele>
        <time>2011-08-09T08:50:06Z</time>
      </trkpt>
      <trkpt lat="46.85683" lon="-1.88095">
        <ele>6.803</ele>
        <time>2011-08-09T08:50:10Z</time>
      </trkpt>
      <trkpt lat="46.85695" lon="-1.88098">
        <ele>8.532</ele>
        <time>2011-08-09T08:50:14Z</time>
      </trkpt>
      <trkpt lat="46.85712" lon="-1.88071">
        <ele>8.692</ele>
        <time>2011-08-09T08:50:17Z</time>
      </trkpt>
      <trkpt lat="46.85736" lon="-1.88096">
        <ele>9.031</ele>
        <time>2011-08-09T08:50:23Z</time>
      </trkpt>
      <trkpt lat="46.85787" lon="-1.88132">
        <ele>9.66</ele>
        <time>2011-08-09T08:50:33Z</time>
      </trkpt>
      <trkpt lat="46.85891" lon="-1.8816">
        <ele>6.598</ele>
        <time>2011-08-09T08:50:49Z</time>
      </trkpt>
      <trkpt lat="46.85898" lon="-1.88158">
        <ele>5.461</ele>
        <time>2011-08-09T08:50:50Z</time>
      </trkpt>
      <trkpt lat="46.85918" lon="-1.88154">
        <ele>3.986</ele>
        <time>2011-08-09T08:50:54Z</time>
      </trkpt>
      <trkpt lat="46.85966" lon="-1.88151">
        <ele>4.01</ele>
        <time>2011-08-09T08:51:00Z</time>
      </trkpt>
      <trkpt lat="46.85973" lon="-1.88151">
        <ele>3.672</ele>
        <time>2011-08-09T08:51:01Z</time>
      </trkpt>
      <trkpt lat="46.86011" lon="-1.88153">
        <ele>4.136</ele>
        <time>2011-08-09T08:51:06Z</time>
      </trkpt>
      <trkpt lat="46.86109" lon="-1.88174">
        <ele>6.13</ele>
        <time>2011-08-09T08:51:20Z</time>
      </trkpt>
      <trkpt lat="46.8612" lon="-1.88175">
        <ele>5.89</ele>
        <time>2011-08-09T08:51:23Z</time>
      </trkpt>
      <trkpt lat="46.86165" lon="-1.88187">
        <ele>6.031</ele>
        <time>2011-08-09T08:51:28Z</time>
      </trkpt>
      <trkpt lat="46.86259" lon="-1.88204">
        <ele>9.538</ele>
        <time>2011-08-09T08:51:42Z</time>
      </trkpt>
      <trkpt lat="46.86302" lon="-1.88212">
        <ele>10.791</ele>
        <time>2011-08-09T08:51:49Z</time>
      </trkpt>
      <trkpt lat="46.86401" lon="-1.88229">
        <ele>8.702</ele>
        <time>2011-08-09T08:52:05Z</time>
      </trkpt>
      <trkpt lat="46.86484" lon="-1.88245">
        <ele>5.587</ele>
        <time>2011-08-09T08:52:16Z</time>
      </trkpt>
      <trkpt lat="46.86501" lon="-1.88249">
        <ele>4.568</ele>
        <time>2011-08-09T08:52:18Z</time>
      </trkpt>
      <trkpt lat="46.86609" lon="-1.8827">
        <ele>6.582</ele>
        <time>2011-08-09T08:52:34Z</time>
      </trkpt>
      <trkpt lat="46.86673" lon="-1.88283">
        <ele>9.753</ele>
        <time>2011-08-09T08:52:45Z</time>
      </trkpt>
      <trkpt lat="46.8678" lon="-1.88306">
        <ele>12.816</ele>
        <time>2011-08-09T08:53:01Z</time>
      </trkpt>
      <trkpt lat="46.86927" lon="-1.88334">
        <ele>11.859</ele>
        <time>2011-08-09T08:53:26Z</time>
      </trkpt>
      <trkpt lat="46.87078" lon="-1.88363">
        <ele>10.446</ele>
        <time>2011-08-09T08:53:51Z</time>
      </trkpt>
      <trkpt lat="46.87171" lon="-1.8838">
        <ele>10.641</ele>
        <time>2011-08-09T08:54:05Z</time>
      </trkpt>
      <trkpt lat="46.87253" lon="-1.88395">
        <ele>10.347</ele>
        <time>2011-08-09T08:54:17Z</time>
      </trkpt>
      <trkpt lat="46.87332" lon="-1.88409">
        <ele>12.225</ele>
        <time>2011-08-09T08:54:29Z</time>
      </trkpt>
      <trkpt lat="46.8752" lon="-1.88442">
        <ele>12.084</ele>
        <time>2011-08-09T08:54:57Z</time>
      </trkpt>
      <trkpt lat="46.87677" lon="-1.88476">
        <ele>11.004</ele>
        <time>2011-08-09T08:55:22Z</time>
      </trkpt>
      <trkpt lat="46.87871" lon="-1.88506">
        <ele>8.804</ele>
        <time>2011-08-09T08:55:49Z</time>
      </trkpt>
      <trkpt lat="46.88104" lon="-1.88553">
        <ele>9.747</ele>
        <time>2011-08-09T08:56:19Z</time>
      </trkpt>
      <trkpt lat="46.88289" lon="-1.88591">
        <ele>10.262</ele>
        <time>2011-08-09T08:56:45Z</time>
      </trkpt>
      <trkpt lat="46.88447" lon="-1.88624">
        <ele>13.376</ele>
        <time>2011-08-09T08:57:09Z</time>
      </trkpt>
      <trkpt lat="46.88563" lon="-1.88645">
        <ele>14.125</ele>
        <time>2011-08-09T08:57:27Z</time>
      </trkpt>
      <trkpt lat="46.88637" lon="-1.88661">
        <ele>12.489</ele>
        <time>2011-08-09T08:57:38Z</time>
      </trkpt>
      <trkpt lat="46.88652" lon="-1.88665">
        <ele>11.505</ele>
        <time>2011-08-09T08:57:40Z</time>
      </trkpt>
      <trkpt lat="46.88699" lon="-1.88674">
        <ele>9.63</ele>
        <time>2011-08-09T08:57:46Z</time>
      </trkpt>
      <trkpt lat="46.88798" lon="-1.88695">
        <ele>8.071</ele>
        <time>2011-08-09T08:58:00Z</time>
      </trkpt>
      <trkpt lat="46.88918" lon="-1.88717">
        <ele>6.603</ele>
        <time>2011-08-09T08:58:14Z</time>
      </trkpt>
      <trkpt lat="46.88925" lon="-1.88718">
        <ele>6.676</ele>
        <time>2011-08-09T08:58:15Z</time>
      </trkpt>
      <trkpt lat="46.89029" lon="-1.88735">
        <ele>6.87</ele>
        <time>2011-08-09T08:58:29Z</time>
      </trkpt>
      <trkpt lat="46.89126" lon="-1.88732">
        <ele>7.223</ele>
        <time>2011-08-09T08:58:43Z</time>
      </trkpt>
      <trkpt lat="46.89171" lon="-1.88729">
        <ele>7.882</ele>
        <time>2011-08-09T08:58:51Z</time>
      </trkpt>
      <trkpt lat="46.8931" lon="-1.88725">
        <ele>7.3</ele>
        <time>2011-08-09T08:59:08Z</time>
      </trkpt>
      <trkpt lat="46.89347" lon="-1.88725">
        <ele>7.199</ele>
        <time>2011-08-09T08:59:13Z</time>
      </trkpt>
      <trkpt lat="46.89488" lon="-1.8872">
        <ele>7.225</ele>
        <time>2011-08-09T08:59:34Z</time>
      </trkpt>
      <trkpt lat="46.89653" lon="-1.88716">
        <ele>8.144</ele>
        <time>2011-08-09T08:59:55Z</time>
      </trkpt>
      <trkpt lat="46.89706" lon="-1.88714">
        <ele>7.927</ele>
        <time>2011-08-09T09:00:02Z</time>
      </trkpt>
      <trkpt lat="46.89881" lon="-1.88707">
        <ele>9.25</ele>
        <time>2011-08-09T09:00:26Z</time>
      </trkpt>
      <trkpt lat="46.90065" lon="-1.88703">
        <ele>7.909</ele>
        <time>2011-08-09T09:00:53Z</time>
      </trkpt>
      <trkpt lat="46.90253" lon="-1.88703">
        <ele>10.399</ele>
        <time>2011-08-09T09:01:22Z</time>
      </trkpt>
      <trkpt lat="46.90362" lon="-1.88701">
        <ele>10.327</ele>
        <time>2011-08-09T09:01:37Z</time>
      </trkpt>
      <trkpt lat="46.90538" lon="-1.88696">
        <ele>8.583</ele>
        <time>2011-08-09T09:02:01Z</time>
      </trkpt>
      <trkpt lat="46.90598" lon="-1.88695">
        <ele>9.601</ele>
        <time>2011-08-09T09:02:09Z</time>
      </trkpt>
      <trkpt lat="46.90809" lon="-1.8869">
        <ele>10.449</ele>
        <time>2011-08-09T09:02:37Z</time>
      </trkpt>
      <trkpt lat="46.9086" lon="-1.88688">
        <ele>9.927</ele>
        <time>2011-08-09T09:02:44Z</time>
      </trkpt>
      <trkpt lat="46.91069" lon="-1.88683">
        <ele>11.961</ele>
        <time>2011-08-09T09:03:14Z</time>
      </trkpt>
      <trkpt lat="46.91128" lon="-1.88682">
        <ele>15.373</ele>
        <time>2011-08-09T09:03:27Z</time>
      </trkpt>
      <trkpt lat="46.91269" lon="-1.88684">
        <ele>17.649</ele>
        <time>2011-08-09T09:03:50Z</time>
      </trkpt>
      <trkpt lat="46.91402" lon="-1.88682">
        <ele>17.581</ele>
        <time>2011-08-09T09:04:13Z</time>
      </trkpt>
      <trkpt lat="46.9155" lon="-1.88675">
        <ele>15.924</ele>
        <time>2011-08-09T09:04:34Z</time>
      </trkpt>
      <trkpt lat="46.91695" lon="-1.88671">
        <ele>13.165</ele>
        <time>2011-08-09T09:04:53Z</time>
      </trkpt>
      <trkpt lat="46.91808" lon="-1.88672">
        <ele>10.058</ele>
        <time>2011-08-09T09:05:07Z</time>
      </trkpt>
      <trkpt lat="46.91999" lon="-1.88664">
        <ele>9.13</ele>
        <time>2011-08-09T09:05:32Z</time>
      </trkpt>
      <trkpt lat="46.92044" lon="-1.88664">
        <ele>7.747</ele>
        <time>2011-08-09T09:05:36Z</time>
      </trkpt>
      <trkpt lat="46.92148" lon="-1.88663">
        <ele>8.949</ele>
        <time>2011-08-09T09:05:49Z</time>
      </trkpt>
      <trkpt lat="46.92328" lon="-1.88661">
        <ele>11.633</ele>
        <time>2011-08-09T09:06:14Z</time>
      </trkpt>
      <trkpt lat="46.92454" lon="-1.8866">
        <ele>11.435</ele>
        <time>2011-08-09T09:06:35Z</time>
      </trkpt>
      <trkpt lat="46.92566" lon="-1.88656">
        <ele>9.616</ele>
        <time>2011-08-09T09:06:48Z</time>
      </trkpt>
      <trkpt lat="46.92615" lon="-1.88656">
        <ele>8.425</ele>
        <time>2011-08-09T09:06:54Z</time>
      </trkpt>
      <trkpt lat="46.92656" lon="-1.88656">
        <ele>6.458</ele>
        <time>2011-08-09T09:06:59Z</time>
      </trkpt>
      <trkpt lat="46.9279" lon="-1.88656">
        <ele>5.36</ele>
        <time>2011-08-09T09:07:15Z</time>
      </trkpt>
      <trkpt lat="46.92919" lon="-1.88655">
        <ele>4.677</ele>
        <time>2011-08-09T09:07:30Z</time>
      </trkpt>
      <trkpt lat="46.93109" lon="-1.88652">
        <ele>3.231</ele>
        <time>2011-08-09T09:07:52Z</time>
      </trkpt>
      <trkpt lat="46.93211" lon="-1.88664">
        <ele>5.513</ele>
        <time>2011-08-09T09:08:07Z</time>
      </trkpt>
      <trkpt lat="46.93297" lon="-1.8868">
        <ele>7.733</ele>
        <time>2011-08-09T09:08:22Z</time>
      </trkpt>
      <trkpt lat="46.93405" lon="-1.88702">
        <ele>8.499</ele>
        <time>2011-08-09T09:08:42Z</time>
      </trkpt>
      <trkpt lat="46.93438" lon="-1.88699">
        <ele>8.78</ele>
        <time>2011-08-09T09:08:48Z</time>
      </trkpt>
      <trkpt lat="46.93554" lon="-1.88671">
        <ele>7.667</ele>
        <time>2011-08-09T09:09:07Z</time>
      </trkpt>
      <trkpt lat="46.93561" lon="-1.8867">
        <ele>7.219</ele>
        <time>2011-08-09T09:09:08Z</time>
      </trkpt>
      <trkpt lat="46.93635" lon="-1.88662">
        <ele>5.178</ele>
        <time>2011-08-09T09:09:20Z</time>
      </trkpt>
      <trkpt lat="46.93746" lon="-1.88633">
        <ele>5.562</ele>
        <time>2011-08-09T09:09:39Z</time>
      </trkpt>
      <trkpt lat="46.93761" lon="-1.88631">
        <ele>5.196</ele>
        <time>2011-08-09T09:09:44Z</time>
      </trkpt>
      <trkpt lat="46.93767" lon="-1.88632">
        <ele>6.646</ele>
        <time>2011-08-09T09:09:47Z</time>
      </trkpt>
      <trkpt lat="46.93768" lon="-1.88639">
        <ele>5.725</ele>
        <time>2011-08-09T09:09:48Z</time>
      </trkpt>
      <trkpt lat="46.93779" lon="-1.88704">
        <ele>3.58</ele>
        <time>2011-08-09T09:09:56Z</time>
      </trkpt>
      <trkpt lat="46.93809" lon="-1.88899">
        <ele>2.706</ele>
        <time>2011-08-09T09:10:16Z</time>
      </trkpt>
      <trkpt lat="46.93822" lon="-1.88949">
        <ele>1.184</ele>
        <time>2011-08-09T09:10:21Z</time>
      </trkpt>
      <trkpt lat="46.93875" lon="-1.89093">
        <ele>1.753</ele>
        <time>2011-08-09T09:10:36Z</time>
      </trkpt>
      <trkpt lat="46.93945" lon="-1.89303">
        <ele>-0.683</ele>
        <time>2011-08-09T09:10:59Z</time>
      </trkpt>
      <trkpt lat="46.94016" lon="-1.8951">
        <ele>-0.185</ele>
        <time>2011-08-09T09:11:22Z</time>
      </trkpt>
      <trkpt lat="46.94108" lon="-1.89772">
        <ele>-0.357</ele>
        <time>2011-08-09T09:11:49Z</time>
      </trkpt>
      <trkpt lat="46.94168" lon="-1.89937">
        <ele>-2.354</ele>
        <time>2011-08-09T09:12:07Z</time>
      </trkpt>
      <trkpt lat="46.94184" lon="-1.89991">
        <ele>-0.614</ele>
        <time>2011-08-09T09:12:13Z</time>
      </trkpt>
      <trkpt lat="46.94197" lon="-1.90036">
        <ele>-0.405</ele>
        <time>2011-08-09T09:12:18Z</time>
      </trkpt>
      <trkpt lat="46.94267" lon="-1.90267">
        <ele>0.367</ele>
        <time>2011-08-09T09:12:44Z</time>
      </trkpt>
      <trkpt lat="46.94311" lon="-1.90403">
        <ele>-2.982</ele>
        <time>2011-08-09T09:12:59Z</time>
      </trkpt>
      <trkpt lat="46.94373" lon="-1.90609">
        <ele>-1.651</ele>
        <time>2011-08-09T09:13:22Z</time>
      </trkpt>
      <trkpt lat="46.94429" lon="-1.90794">
        <ele>-0.841</ele>
        <time>2011-08-09T09:13:45Z</time>
      </trkpt>
      <trkpt lat="46.94497" lon="-1.91028">
        <ele>-2.539</ele>
        <time>2011-08-09T09:14:14Z</time>
      </trkpt>
      <trkpt lat="46.94582" lon="-1.91307">
        <ele>-2.763</ele>
        <time>2011-08-09T09:14:49Z</time>
      </trkpt>
      <trkpt lat="46.94594" lon="-1.91345">
        <ele>-0.613</ele>
        <time>2011-08-09T09:14:54Z</time>
      </trkpt>
      <trkpt lat="46.94604" lon="-1.91377">
        <ele>-2.736</ele>
        <time>2011-08-09T09:14:58Z</time>
      </trkpt>
      <trkpt lat="46.94674" lon="-1.91601">
        <ele>-0.108</ele>
        <time>2011-08-09T09:15:28Z</time>
      </trkpt>
      <trkpt lat="46.94679" lon="-1.91616">
        <ele>-1.294</ele>
        <time>2011-08-09T09:15:30Z</time>
      </trkpt>
      <trkpt lat="46.94752" lon="-1.91853">
        <ele>-1.109</ele>
        <time>2011-08-09T09:16:00Z</time>
      </trkpt>
      <trkpt lat="46.94809" lon="-1.92041">
        <ele>-1.32</ele>
        <time>2011-08-09T09:16:24Z</time>
      </trkpt>
      <trkpt lat="46.94864" lon="-1.92221">
        <ele>-1.753</ele>
        <time>2011-08-09T09:16:48Z</time>
      </trkpt>
      <trkpt lat="46.94905" lon="-1.92352">
        <ele>0.019</ele>
        <time>2011-08-09T09:17:05Z</time>
      </trkpt>
      <trkpt lat="46.94918" lon="-1.92392">
        <ele>-1.68</ele>
        <time>2011-08-09T09:17:10Z</time>
      </trkpt>
      <trkpt lat="46.94993" lon="-1.92644">
        <ele>-1.577</ele>
        <time>2011-08-09T09:17:40Z</time>
      </trkpt>
      <trkpt lat="46.9506" lon="-1.92861">
        <ele>-0.491</ele>
        <time>2011-08-09T09:18:06Z</time>
      </trkpt>
      <trkpt lat="46.95119" lon="-1.93055">
        <ele>-0.76</ele>
        <time>2011-08-09T09:18:30Z</time>
      </trkpt>
      <trkpt lat="46.95162" lon="-1.93192">
        <ele>-2.886</ele>
        <time>2011-08-09T09:18:46Z</time>
      </trkpt>
      <trkpt lat="46.95225" lon="-1.93408">
        <ele>-1.941</ele>
        <time>2011-08-09T09:19:10Z</time>
      </trkpt>
      <trkpt lat="46.95239" lon="-1.93455">
        <ele>-1.932</ele>
        <time>2011-08-09T09:19:16Z</time>
      </trkpt>
      <trkpt lat="46.95305" lon="-1.93667">
        <ele>-2.389</ele>
        <time>2011-08-09T09:19:43Z</time>
      </trkpt>
      <trkpt lat="46.95308" lon="-1.93677">
        <ele>-3.61</ele>
        <time>2011-08-09T09:19:47Z</time>
      </trkpt>
      <trkpt lat="46.95375" lon="-1.93898">
        <ele>-2.804</ele>
        <time>2011-08-09T09:20:13Z</time>
      </trkpt>
      <trkpt lat="46.95453" lon="-1.9416">
        <ele>-1.946</ele>
        <time>2011-08-09T09:20:47Z</time>
      </trkpt>
      <trkpt lat="46.95516" lon="-1.94371">
        <ele>-1.854</ele>
        <time>2011-08-09T09:21:14Z</time>
      </trkpt>
      <trkpt lat="46.95572" lon="-1.94552">
        <ele>-3.337</ele>
        <time>2011-08-09T09:21:37Z</time>
      </trkpt>
      <trkpt lat="46.95644" lon="-1.94784">
        <ele>-2.1</ele>
        <time>2011-08-09T09:22:08Z</time>
      </trkpt>
      <trkpt lat="46.95702" lon="-1.94971">
        <ele>-1.86</ele>
        <time>2011-08-09T09:22:33Z</time>
      </trkpt>
      <trkpt lat="46.95762" lon="-1.95178">
        <ele>-1.278</ele>
        <time>2011-08-09T09:23:00Z</time>
      </trkpt>
      <trkpt lat="46.95813" lon="-1.9534">
        <ele>-1.63</ele>
        <time>2011-08-09T09:23:22Z</time>
      </trkpt>
      <trkpt lat="46.95878" lon="-1.95553">
        <ele>-2.634</ele>
        <time>2011-08-09T09:23:51Z</time>
      </trkpt>
      <trkpt lat="46.95936" lon="-1.95754">
        <ele>-1.926</ele>
        <time>2011-08-09T09:24:19Z</time>
      </trkpt>
      <trkpt lat="46.9601" lon="-1.96">
        <ele>-2.145</ele>
        <time>2011-08-09T09:24:51Z</time>
      </trkpt>
      <trkpt lat="46.96075" lon="-1.96198">
        <ele>-0.834</ele>
        <time>2011-08-09T09:25:17Z</time>
      </trkpt>
      <trkpt lat="46.96138" lon="-1.96401">
        <ele>-1.624</ele>
        <time>2011-08-09T09:25:42Z</time>
      </trkpt>
      <trkpt lat="46.96189" lon="-1.9657">
        <ele>-1.279</ele>
        <time>2011-08-09T09:26:04Z</time>
      </trkpt>
      <trkpt lat="46.96212" lon="-1.9665">
        <ele>-2.942</ele>
        <time>2011-08-09T09:26:15Z</time>
      </trkpt>
      <trkpt lat="46.96261" lon="-1.96806">
        <ele>-2.807</ele>
        <time>2011-08-09T09:26:39Z</time>
      </trkpt>
      <trkpt lat="46.96321" lon="-1.97004">
        <ele>-2.796</ele>
        <time>2011-08-09T09:27:04Z</time>
      </trkpt>
      <trkpt lat="46.96381" lon="-1.97196">
        <ele>-2.458</ele>
        <time>2011-08-09T09:27:31Z</time>
      </trkpt>
      <trkpt lat="46.96434" lon="-1.97371">
        <ele>-1.19</ele>
        <time>2011-08-09T09:27:54Z</time>
      </trkpt>
      <trkpt lat="46.965" lon="-1.97587">
        <ele>-0.207</ele>
        <time>2011-08-09T09:28:22Z</time>
      </trkpt>
      <trkpt lat="46.96507" lon="-1.97611">
        <ele>-3.753</ele>
        <time>2011-08-09T09:28:25Z</time>
      </trkpt>
      <trkpt lat="46.96509" lon="-1.97619">
        <ele>-2.665</ele>
        <time>2011-08-09T09:28:26Z</time>
      </trkpt>
      <trkpt lat="46.96567" lon="-1.97808">
        <ele>-1.775</ele>
        <time>2011-08-09T09:28:51Z</time>
      </trkpt>
      <trkpt lat="46.9663" lon="-1.98014">
        <ele>-2.876</ele>
        <time>2011-08-09T09:29:17Z</time>
      </trkpt>
      <trkpt lat="46.96688" lon="-1.9818">
        <ele>-2.537</ele>
        <time>2011-08-09T09:29:38Z</time>
      </trkpt>
      <trkpt lat="46.96711" lon="-1.98235">
        <ele>-3.382</ele>
        <time>2011-08-09T09:29:45Z</time>
      </trkpt>
      <trkpt lat="46.96793" lon="-1.98436">
        <ele>-1.208</ele>
        <time>2011-08-09T09:30:12Z</time>
      </trkpt>
      <trkpt lat="46.96884" lon="-1.9866">
        <ele>-0.901</ele>
        <time>2011-08-09T09:30:43Z</time>
      </trkpt>
      <trkpt lat="46.96933" lon="-1.9878">
        <ele>-4.021</ele>
        <time>2011-08-09T09:30:59Z</time>
      </trkpt>
      <trkpt lat="46.9697" lon="-1.98874">
        <ele>-1.126</ele>
        <time>2011-08-09T09:31:12Z</time>
      </trkpt>
      <trkpt lat="46.96995" lon="-1.98938">
        <ele>-1.412</ele>
        <time>2011-08-09T09:31:24Z</time>
      </trkpt>
      <trkpt lat="46.97032" lon="-1.99026">
        <ele>-0.895</ele>
        <time>2011-08-09T09:31:41Z</time>
      </trkpt>
      <trkpt lat="46.97087" lon="-1.99159">
        <ele>-2.035</ele>
        <time>2011-08-09T09:32:03Z</time>
      </trkpt>
      <trkpt lat="46.9714" lon="-1.99288">
        <ele>-3.056</ele>
        <time>2011-08-09T09:32:21Z</time>
      </trkpt>
      <trkpt lat="46.97183" lon="-1.99391">
        <ele>-0.955</ele>
        <time>2011-08-09T09:32:35Z</time>
      </trkpt>
      <trkpt lat="46.97218" lon="-1.99477">
        <ele>-2.917</ele>
        <time>2011-08-09T09:32:48Z</time>
      </trkpt>
      <trkpt lat="46.97231" lon="-1.99509">
        <ele>-2.419</ele>
        <time>2011-08-09T09:32:53Z</time>
      </trkpt>
      <trkpt lat="46.97286" lon="-1.99637">
        <ele>-1.578</ele>
        <time>2011-08-09T09:33:14Z</time>
      </trkpt>
      <trkpt lat="46.97297" lon="-1.99662">
        <ele>-1.865</ele>
        <time>2011-08-09T09:33:19Z</time>
      </trkpt>
      <trkpt lat="46.97288" lon="-1.9968">
        <ele>-0.296</ele>
        <time>2011-08-09T09:33:23Z</time>
      </trkpt>
      <trkpt lat="46.97284" lon="-1.99685">
        <ele>-0.554</ele>
        <time>2011-08-09T09:33:24Z</time>
      </trkpt>
      <trkpt lat="46.97207" lon="-1.99786">
        <ele>-1.656</ele>
        <time>2011-08-09T09:33:39Z</time>
      </trkpt>
      <trkpt lat="46.97101" lon="-1.99985">
        <ele>-2.181</ele>
        <time>2011-08-09T09:34:04Z</time>
      </trkpt>
      <trkpt lat="46.97013" lon="-2.00145">
        <ele>-1.104</ele>
        <time>2011-08-09T09:34:25Z</time>
      </trkpt>
      <trkpt lat="46.96929" lon="-2.00215">
        <ele>-1.186</ele>
        <time>2011-08-09T09:34:39Z</time>
      </trkpt>
      <trkpt lat="46.96782" lon="-2.00313">
        <ele>-1.373</ele>
        <time>2011-08-09T09:35:02Z</time>
      </trkpt>
      <trkpt lat="46.9663" lon="-2.00415">
        <ele>-1.273</ele>
        <time>2011-08-09T09:35:27Z</time>
      </trkpt>
      <trkpt lat="46.96516" lon="-2.00466">
        <ele>-0.022</ele>
        <time>2011-08-09T09:35:41Z</time>
      </trkpt>
      <trkpt lat="46.96378" lon="-2.00485">
        <ele>-1.974</ele>
        <time>2011-08-09T09:35:59Z</time>
      </trkpt>
      <trkpt lat="46.96324" lon="-2.00529">
        <ele>-2.206</ele>
        <time>2011-08-09T09:36:07Z</time>
      </trkpt>
      <trkpt lat="46.96149" lon="-2.0067">
        <ele>-2.158</ele>
        <time>2011-08-09T09:36:33Z</time>
      </trkpt>
      <trkpt lat="46.95996" lon="-2.00802">
        <ele>-1.51</ele>
        <time>2011-08-09T09:36:57Z</time>
      </trkpt>
      <trkpt lat="46.95913" lon="-2.00946">
        <ele>-1.995</ele>
        <time>2011-08-09T09:37:16Z</time>
      </trkpt>
      <trkpt lat="46.95875" lon="-2.01057">
        <ele>-3.828</ele>
        <time>2011-08-09T09:37:29Z</time>
      </trkpt>
      <trkpt lat="46.9582" lon="-2.0122">
        <ele>-2.733</ele>
        <time>2011-08-09T09:37:49Z</time>
      </trkpt>
      <trkpt lat="46.95742" lon="-2.01436">
        <ele>-1.317</ele>
        <time>2011-08-09T09:38:17Z</time>
      </trkpt>
      <trkpt lat="46.95714" lon="-2.01469">
        <ele>-1.671</ele>
        <time>2011-08-09T09:38:23Z</time>
      </trkpt>
      <trkpt lat="46.95542" lon="-2.01544">
        <ele>-1.195</ele>
        <time>2011-08-09T09:38:49Z</time>
      </trkpt>
      <trkpt lat="46.95389" lon="-2.01632">
        <ele>-2.815</ele>
        <time>2011-08-09T09:39:12Z</time>
      </trkpt>
      <trkpt lat="46.95377" lon="-2.01645">
        <ele>-3.822</ele>
        <time>2011-08-09T09:39:14Z</time>
      </trkpt>
      <trkpt lat="46.95316" lon="-2.01749">
        <ele>-2.738</ele>
        <time>2011-08-09T09:39:31Z</time>
      </trkpt>
      <trkpt lat="46.95169" lon="-2.02047">
        <ele>-1.972</ele>
        <time>2011-08-09T09:40:05Z</time>
      </trkpt>
      <trkpt lat="46.95072" lon="-2.02221">
        <ele>-1.886</ele>
        <time>2011-08-09T09:40:28Z</time>
      </trkpt>
      <trkpt lat="46.94974" lon="-2.02308">
        <ele>-1.792</ele>
        <time>2011-08-09T09:40:45Z</time>
      </trkpt>
      <trkpt lat="46.94843" lon="-2.02408">
        <ele>-2.582</ele>
        <time>2011-08-09T09:41:06Z</time>
      </trkpt>
      <trkpt lat="46.94607" lon="-2.02593">
        <ele>-0.707</ele>
        <time>2011-08-09T09:41:43Z</time>
      </trkpt>
      <trkpt lat="46.94424" lon="-2.02741">
        <ele>-1.977</ele>
        <time>2011-08-09T09:42:14Z</time>
      </trkpt>
      <trkpt lat="46.94224" lon="-2.02896">
        <ele>-2.153</ele>
        <time>2011-08-09T09:42:45Z</time>
      </trkpt>
      <trkpt lat="46.94029" lon="-2.03049">
        <ele>-2.338</ele>
        <time>2011-08-09T09:43:16Z</time>
      </trkpt>
      <trkpt lat="46.93792" lon="-2.03235">
        <ele>-1.151</ele>
        <time>2011-08-09T09:43:54Z</time>
      </trkpt>
      <trkpt lat="46.93615" lon="-2.03373">
        <ele>-1.967</ele>
        <time>2011-08-09T09:44:23Z</time>
      </trkpt>
      <trkpt lat="46.93429" lon="-2.0352">
        <ele>-2.069</ele>
        <time>2011-08-09T09:44:54Z</time>
      </trkpt>
      <trkpt lat="46.93303" lon="-2.03618">
        <ele>-1.46</ele>
        <time>2011-08-09T09:45:15Z</time>
      </trkpt>
      <trkpt lat="46.93133" lon="-2.03748">
        <ele>-2.448</ele>
        <time>2011-08-09T09:45:43Z</time>
      </trkpt>
      <trkpt lat="46.92952" lon="-2.03887">
        <ele>-2.502</ele>
        <time>2011-08-09T09:46:13Z</time>
      </trkpt>
      <trkpt lat="46.92767" lon="-2.04037">
        <ele>-0.939</ele>
        <time>2011-08-09T09:46:41Z</time>
      </trkpt>
      <trkpt lat="46.92684" lon="-2.04088">
        <ele>-1.293</ele>
        <time>2011-08-09T09:46:54Z</time>
      </trkpt>
      <trkpt lat="46.92583" lon="-2.04063">
        <ele>-1.52</ele>
        <time>2011-08-09T09:47:10Z</time>
      </trkpt>
      <trkpt lat="46.92474" lon="-2.04053">
        <ele>-2.109</ele>
        <time>2011-08-09T09:47:27Z</time>
      </trkpt>
      <trkpt lat="46.92314" lon="-2.04126">
        <ele>-1.671</ele>
        <time>2011-08-09T09:47:51Z</time>
      </trkpt>
      <trkpt lat="46.92156" lon="-2.04209">
        <ele>-2.708</ele>
        <time>2011-08-09T09:48:15Z</time>
      </trkpt>
      <trkpt lat="46.91999" lon="-2.04278">
        <ele>-1.998</ele>
        <time>2011-08-09T09:48:39Z</time>
      </trkpt>
      <trkpt lat="46.91881" lon="-2.04375">
        <ele>-0.92</ele>
        <time>2011-08-09T09:49:00Z</time>
      </trkpt>
      <trkpt lat="46.91869" lon="-2.04394">
        <ele>-1.295</ele>
        <time>2011-08-09T09:49:03Z</time>
      </trkpt>
      <trkpt lat="46.91862" lon="-2.04406">
        <ele>-1.46</ele>
        <time>2011-08-09T09:49:07Z</time>
      </trkpt>
      <trkpt lat="46.9178" lon="-2.04517">
        <ele>-3.203</ele>
        <time>2011-08-09T09:49:26Z</time>
      </trkpt>
      <trkpt lat="46.91694" lon="-2.04625">
        <ele>-1.373</ele>
        <time>2011-08-09T09:49:40Z</time>
      </trkpt>
      <trkpt lat="46.91651" lon="-2.04646">
        <ele>-1.658</ele>
        <time>2011-08-09T09:49:49Z</time>
      </trkpt>
      <trkpt lat="46.91631" lon="-2.04653">
        <ele>-0.387</ele>
        <time>2011-08-09T09:49:52Z</time>
      </trkpt>
      <trkpt lat="46.91619" lon="-2.04655">
        <ele>0.066</ele>
        <time>2011-08-09T09:49:54Z</time>
      </trkpt>
      <trkpt lat="46.91576" lon="-2.04655">
        <ele>0.473</ele>
        <time>2011-08-09T09:50:04Z</time>
      </trkpt>
      <trkpt lat="46.91553" lon="-2.04655">
        <ele>-0.105</ele>
        <time>2011-08-09T09:50:13Z</time>
      </trkpt>
      <trkpt lat="46.91533" lon="-2.04656">
        <ele>-0.159</ele>
        <time>2011-08-09T09:50:17Z</time>
      </trkpt>
      <trkpt lat="46.91458" lon="-2.04583">
        <ele>-0.052</ele>
        <time>2011-08-09T09:50:31Z</time>
      </trkpt>
      <trkpt lat="46.91378" lon="-2.04535">
        <ele>0.988</ele>
        <time>2011-08-09T09:50:44Z</time>
      </trkpt>
      <trkpt lat="46.91341" lon="-2.04543">
        <ele>1.308</ele>
        <time>2011-08-09T09:50:54Z</time>
      </trkpt>
      <trkpt lat="46.91284" lon="-2.04557">
        <ele>1.188</ele>
        <time>2011-08-09T09:51:03Z</time>
      </trkpt>
      <trkpt lat="46.91176" lon="-2.04624">
        <ele>-0.165</ele>
        <time>2011-08-09T09:51:18Z</time>
      </trkpt>
      <trkpt lat="46.9112" lon="-2.04668">
        <ele>-0.728</ele>
        <time>2011-08-09T09:51:27Z</time>
      </trkpt>
      <trkpt lat="46.91103" lon="-2.04684">
        <ele>-3.143</ele>
        <time>2011-08-09T09:51:31Z</time>
      </trkpt>
      <trkpt lat="46.91084" lon="-2.04704">
        <ele>0.198</ele>
        <time>2011-08-09T09:51:36Z</time>
      </trkpt>
      <trkpt lat="46.91055" lon="-2.04708">
        <ele>-1.783</ele>
        <time>2011-08-09T09:51:40Z</time>
      </trkpt>
      <trkpt lat="46.90934" lon="-2.0479">
        <ele>-2.787</ele>
        <time>2011-08-09T09:51:56Z</time>
      </trkpt>
      <trkpt lat="46.90766" lon="-2.049">
        <ele>-3.467</ele>
        <time>2011-08-09T09:52:18Z</time>
      </trkpt>
      <trkpt lat="46.90647" lon="-2.04977">
        <ele>-1.397</ele>
        <time>2011-08-09T09:52:36Z</time>
      </trkpt>
      <trkpt lat="46.90543" lon="-2.05059">
        <ele>-3.262</ele>
        <time>2011-08-09T09:52:53Z</time>
      </trkpt>
      <trkpt lat="46.9047" lon="-2.05179">
        <ele>-3.686</ele>
        <time>2011-08-09T09:53:09Z</time>
      </trkpt>
      <trkpt lat="46.9043" lon="-2.05351">
        <ele>-3.831</ele>
        <time>2011-08-09T09:53:28Z</time>
      </trkpt>
      <trkpt lat="46.9042" lon="-2.05505">
        <ele>-4.43</ele>
        <time>2011-08-09T09:53:45Z</time>
      </trkpt>
      <trkpt lat="46.90408" lon="-2.05594">
        <ele>-1.834</ele>
        <time>2011-08-09T09:53:56Z</time>
      </trkpt>
      <trkpt lat="46.9033" lon="-2.05762">
        <ele>-1.655</ele>
        <time>2011-08-09T09:54:22Z</time>
      </trkpt>
      <trkpt lat="46.90263" lon="-2.05851">
        <ele>-2.591</ele>
        <time>2011-08-09T09:54:34Z</time>
      </trkpt>
      <trkpt lat="46.90178" lon="-2.05955">
        <ele>-3.579</ele>
        <time>2011-08-09T09:54:52Z</time>
      </trkpt>
      <trkpt lat="46.90086" lon="-2.06121">
        <ele>-2.024</ele>
        <time>2011-08-09T09:55:15Z</time>
      </trkpt>
      <trkpt lat="46.89985" lon="-2.06273">
        <ele>-1.04</ele>
        <time>2011-08-09T09:55:37Z</time>
      </trkpt>
      <trkpt lat="46.8989" lon="-2.06335">
        <ele>-2.207</ele>
        <time>2011-08-09T09:55:52Z</time>
      </trkpt>
      <trkpt lat="46.89643" lon="-2.06413">
        <ele>-2.689</ele>
        <time>2011-08-09T09:56:28Z</time>
      </trkpt>
      <trkpt lat="46.89489" lon="-2.06496">
        <ele>-3.268</ele>
        <time>2011-08-09T09:56:51Z</time>
      </trkpt>
      <trkpt lat="46.89355" lon="-2.06573">
        <ele>-2.889</ele>
        <time>2011-08-09T09:57:11Z</time>
      </trkpt>
      <trkpt lat="46.89274" lon="-2.06646">
        <ele>-3.916</ele>
        <time>2011-08-09T09:57:26Z</time>
      </trkpt>
      <trkpt lat="46.89158" lon="-2.06801">
        <ele>-2.543</ele>
        <time>2011-08-09T09:57:49Z</time>
      </trkpt>
      <trkpt lat="46.89076" lon="-2.06969">
        <ele>-3.019</ele>
        <time>2011-08-09T09:58:07Z</time>
      </trkpt>
      <trkpt lat="46.88943" lon="-2.07161">
        <ele>-2.781</ele>
        <time>2011-08-09T09:58:35Z</time>
      </trkpt>
      <trkpt lat="46.88838" lon="-2.07342">
        <ele>-2.425</ele>
        <time>2011-08-09T09:58:59Z</time>
      </trkpt>
      <trkpt lat="46.88792" lon="-2.07434">
        <ele>-3.096</ele>
        <time>2011-08-09T09:59:11Z</time>
      </trkpt>
      <trkpt lat="46.8877" lon="-2.07485">
        <ele>-3.66</ele>
        <time>2011-08-09T09:59:17Z</time>
      </trkpt>
      <trkpt lat="46.88768" lon="-2.07602">
        <ele>-3.852</ele>
        <time>2011-08-09T09:59:29Z</time>
      </trkpt>
      <trkpt lat="46.88794" lon="-2.07825">
        <ele>-3.83</ele>
        <time>2011-08-09T09:59:53Z</time>
      </trkpt>
      <trkpt lat="46.88816" lon="-2.08012">
        <ele>-3.596</ele>
        <time>2011-08-09T10:00:13Z</time>
      </trkpt>
      <trkpt lat="46.88823" lon="-2.08069">
        <ele>-2.206</ele>
        <time>2011-08-09T10:00:19Z</time>
      </trkpt>
      <trkpt lat="46.88832" lon="-2.08147">
        <ele>-2.983</ele>
        <time>2011-08-09T10:00:27Z</time>
      </trkpt>
      <trkpt lat="46.88871" lon="-2.08479">
        <ele>-2.7</ele>
        <time>2011-08-09T10:00:59Z</time>
      </trkpt>
      <trkpt lat="46.88896" lon="-2.08695">
        <ele>-3.488</ele>
        <time>2011-08-09T10:01:20Z</time>
      </trkpt>
      <trkpt lat="46.88931" lon="-2.08992">
        <ele>-3.888</ele>
        <time>2011-08-09T10:01:50Z</time>
      </trkpt>
      <trkpt lat="46.88944" lon="-2.09095">
        <ele>-3.377</ele>
        <time>2011-08-09T10:02:01Z</time>
      </trkpt>
      <trkpt lat="46.8896" lon="-2.09222">
        <ele>-4.419</ele>
        <time>2011-08-09T10:02:15Z</time>
      </trkpt>
      <trkpt lat="46.88981" lon="-2.09426">
        <ele>-1.569</ele>
        <time>2011-08-09T10:02:38Z</time>
      </trkpt>
      <trkpt lat="46.88993" lon="-2.09611">
        <ele>-3.754</ele>
        <time>2011-08-09T10:03:01Z</time>
      </trkpt>
      <trkpt lat="46.88987" lon="-2.09739">
        <ele>-2.922</ele>
        <time>2011-08-09T10:03:16Z</time>
      </trkpt>
      <trkpt lat="46.88986" lon="-2.09753">
        <ele>-3.035</ele>
        <time>2011-08-09T10:03:19Z</time>
      </trkpt>
      <trkpt lat="46.88982" lon="-2.09807">
        <ele>-2.118</ele>
        <time>2011-08-09T10:03:24Z</time>
      </trkpt>
      <trkpt lat="46.8897" lon="-2.10055">
        <ele>-3.161</ele>
        <time>2011-08-09T10:03:52Z</time>
      </trkpt>
      <trkpt lat="46.88968" lon="-2.10109">
        <ele>-4.879</ele>
        <time>2011-08-09T10:03:58Z</time>
      </trkpt>
      <trkpt lat="46.88958" lon="-2.10338">
        <ele>-4.649</ele>
        <time>2011-08-09T10:04:22Z</time>
      </trkpt>
      <trkpt lat="46.88945" lon="-2.1058">
        <ele>-4.283</ele>
        <time>2011-08-09T10:04:48Z</time>
      </trkpt>
      <trkpt lat="46.88943" lon="-2.10615">
        <ele>-2.353</ele>
        <time>2011-08-09T10:04:52Z</time>
      </trkpt>
      <trkpt lat="46.88931" lon="-2.10867">
        <ele>-1.596</ele>
        <time>2011-08-09T10:05:20Z</time>
      </trkpt>
      <trkpt lat="46.8892" lon="-2.1104">
        <ele>-1.45</ele>
        <time>2011-08-09T10:05:41Z</time>
      </trkpt>
      <trkpt lat="46.88892" lon="-2.11139">
        <ele>-1.011</ele>
        <time>2011-08-09T10:05:57Z</time>
      </trkpt>
      <trkpt lat="46.88888" lon="-2.11155">
        <ele>-1.089</ele>
        <time>2011-08-09T10:06:02Z</time>
      </trkpt>
      <trkpt lat="46.88881" lon="-2.11191">
        <ele>-0.808</ele>
        <time>2011-08-09T10:06:09Z</time>
      </trkpt>
      <trkpt lat="46.88877" lon="-2.11187">
        <ele>-1.303</ele>
        <time>2011-08-09T10:06:10Z</time>
      </trkpt>
      <trkpt lat="46.88795" lon="-2.11287">
        <ele>-1.884</ele>
        <time>2011-08-09T10:06:25Z</time>
      </trkpt>
      <trkpt lat="46.88702" lon="-2.11441">
        <ele>-3.332</ele>
        <time>2011-08-09T10:06:44Z</time>
      </trkpt>
      <trkpt lat="46.8858" lon="-2.11638">
        <ele>-2.401</ele>
        <time>2011-08-09T10:07:10Z</time>
      </trkpt>
      <trkpt lat="46.88519" lon="-2.11736">
        <ele>-1.31</ele>
        <time>2011-08-09T10:07:24Z</time>
      </trkpt>
      <trkpt lat="46.88467" lon="-2.11814">
        <ele>-1.292</ele>
        <time>2011-08-09T10:07:37Z</time>
      </trkpt>
      <trkpt lat="46.88376" lon="-2.11916">
        <ele>-1.133</ele>
        <time>2011-08-09T10:07:56Z</time>
      </trkpt>
      <trkpt lat="46.88346" lon="-2.11937">
        <ele>-1.849</ele>
        <time>2011-08-09T10:08:01Z</time>
      </trkpt>
      <trkpt lat="46.88254" lon="-2.11932">
        <ele>-1.894</ele>
        <time>2011-08-09T10:08:14Z</time>
      </trkpt>
      <trkpt lat="46.88224" lon="-2.11929">
        <ele>-1.977</ele>
        <time>2011-08-09T10:08:18Z</time>
      </trkpt>
      <trkpt lat="46.88194" lon="-2.11926">
        <ele>-2.364</ele>
        <time>2011-08-09T10:08:22Z</time>
      </trkpt>
      <trkpt lat="46.88138" lon="-2.1192">
        <ele>-4.168</ele>
        <time>2011-08-09T10:08:29Z</time>
      </trkpt>
      <trkpt lat="46.88009" lon="-2.11932">
        <ele>-4.362</ele>
        <time>2011-08-09T10:08:45Z</time>
      </trkpt>
      <trkpt lat="46.87783" lon="-2.12014">
        <ele>-2.996</ele>
        <time>2011-08-09T10:09:15Z</time>
      </trkpt>
      <trkpt lat="46.87604" lon="-2.12061">
        <ele>-2.093</ele>
        <time>2011-08-09T10:09:39Z</time>
      </trkpt>
      <trkpt lat="46.87472" lon="-2.12026">
        <ele>-2.534</ele>
        <time>2011-08-09T10:09:57Z</time>
      </trkpt>
      <trkpt lat="46.87467" lon="-2.12023">
        <ele>-3.275</ele>
        <time>2011-08-09T10:09:59Z</time>
      </trkpt>
      <trkpt lat="46.87413" lon="-2.12001">
        <ele>-3.915</ele>
        <time>2011-08-09T10:10:05Z</time>
      </trkpt>
      <trkpt lat="46.87265" lon="-2.11942">
        <ele>-2.551</ele>
        <time>2011-08-09T10:10:25Z</time>
      </trkpt>
      <trkpt lat="46.87048" lon="-2.11853">
        <ele>-2.784</ele>
        <time>2011-08-09T10:10:53Z</time>
      </trkpt>
      <trkpt lat="46.86924" lon="-2.11801">
        <ele>-2.069</ele>
        <time>2011-08-09T10:11:09Z</time>
      </trkpt>
      <trkpt lat="46.86876" lon="-2.11782">
        <ele>-4.554</ele>
        <time>2011-08-09T10:11:15Z</time>
      </trkpt>
      <trkpt lat="46.86853" lon="-2.11773">
        <ele>-3.235</ele>
        <time>2011-08-09T10:11:18Z</time>
      </trkpt>
      <trkpt lat="46.86694" lon="-2.11691">
        <ele>-3.731</ele>
        <time>2011-08-09T10:11:39Z</time>
      </trkpt>
      <trkpt lat="46.86533" lon="-2.11626">
        <ele>-2.631</ele>
        <time>2011-08-09T10:12:01Z</time>
      </trkpt>
      <trkpt lat="46.86344" lon="-2.11546">
        <ele>-2.74</ele>
        <time>2011-08-09T10:12:27Z</time>
      </trkpt>
      <trkpt lat="46.86154" lon="-2.11483">
        <ele>-2.848</ele>
        <time>2011-08-09T10:12:54Z</time>
      </trkpt>
      <trkpt lat="46.86" lon="-2.11514">
        <ele>-2.342</ele>
        <time>2011-08-09T10:13:12Z</time>
      </trkpt>
      <trkpt lat="46.85812" lon="-2.11601">
        <ele>-3.603</ele>
        <time>2011-08-09T10:13:37Z</time>
      </trkpt>
      <trkpt lat="46.85692" lon="-2.11657">
        <ele>-3.91</ele>
        <time>2011-08-09T10:13:55Z</time>
      </trkpt>
      <trkpt lat="46.85527" lon="-2.11752">
        <ele>-2.835</ele>
        <time>2011-08-09T10:14:19Z</time>
      </trkpt>
      <trkpt lat="46.85493" lon="-2.11773">
        <ele>-2.756</ele>
        <time>2011-08-09T10:14:24Z</time>
      </trkpt>
      <trkpt lat="46.85326" lon="-2.11894">
        <ele>-2.678</ele>
        <time>2011-08-09T10:14:50Z</time>
      </trkpt>
      <trkpt lat="46.85138" lon="-2.12035">
        <ele>-2.156</ele>
        <time>2011-08-09T10:15:20Z</time>
      </trkpt>
      <trkpt lat="46.85088" lon="-2.12075">
        <ele>-1.169</ele>
        <time>2011-08-09T10:15:30Z</time>
      </trkpt>
      <trkpt lat="46.85064" lon="-2.12092">
        <ele>-2.179</ele>
        <time>2011-08-09T10:15:35Z</time>
      </trkpt>
      <trkpt lat="46.84963" lon="-2.12167">
        <ele>-3.108</ele>
        <time>2011-08-09T10:15:52Z</time>
      </trkpt>
      <trkpt lat="46.84837" lon="-2.12265">
        <ele>-2.628</ele>
        <time>2011-08-09T10:16:12Z</time>
      </trkpt>
      <trkpt lat="46.84677" lon="-2.12388">
        <ele>-2.473</ele>
        <time>2011-08-09T10:16:37Z</time>
      </trkpt>
      <trkpt lat="46.84594" lon="-2.12418">
        <ele>-2.333</ele>
        <time>2011-08-09T10:16:49Z</time>
      </trkpt>
      <trkpt lat="46.84409" lon="-2.12442">
        <ele>-2.285</ele>
        <time>2011-08-09T10:17:15Z</time>
      </trkpt>
      <trkpt lat="46.8436" lon="-2.12448">
        <ele>-3.206</ele>
        <time>2011-08-09T10:17:23Z</time>
      </trkpt>
      <trkpt lat="46.84161" lon="-2.12482">
        <ele>-2.788</ele>
        <time>2011-08-09T10:17:49Z</time>
      </trkpt>
      <trkpt lat="46.84011" lon="-2.12509">
        <ele>-2.481</ele>
        <time>2011-08-09T10:18:11Z</time>
      </trkpt>
      <trkpt lat="46.83908" lon="-2.1255">
        <ele>-4.555</ele>
        <time>2011-08-09T10:18:27Z</time>
      </trkpt>
      <trkpt lat="46.83901" lon="-2.12555">
        <ele>-4.583</ele>
        <time>2011-08-09T10:18:28Z</time>
      </trkpt>
      <trkpt lat="46.83774" lon="-2.12635">
        <ele>-2.783</ele>
        <time>2011-08-09T10:18:48Z</time>
      </trkpt>
      <trkpt lat="46.83603" lon="-2.12737">
        <ele>-2.459</ele>
        <time>2011-08-09T10:19:15Z</time>
      </trkpt>
      <trkpt lat="46.83495" lon="-2.12805">
        <ele>-2.235</ele>
        <time>2011-08-09T10:19:34Z</time>
      </trkpt>
      <trkpt lat="46.83354" lon="-2.1289">
        <ele>-2.026</ele>
        <time>2011-08-09T10:19:57Z</time>
      </trkpt>
      <trkpt lat="46.83257" lon="-2.12946">
        <ele>-1.308</ele>
        <time>2011-08-09T10:20:16Z</time>
      </trkpt>
      <trkpt lat="46.83227" lon="-2.12963">
        <ele>-1.394</ele>
        <time>2011-08-09T10:20:24Z</time>
      </trkpt>
      <trkpt lat="46.83197" lon="-2.1298">
        <ele>-1.191</ele>
        <time>2011-08-09T10:20:30Z</time>
      </trkpt>
      <trkpt lat="46.83149" lon="-2.13">
        <ele>-1.559</ele>
        <time>2011-08-09T10:20:39Z</time>
      </trkpt>
      <trkpt lat="46.83089" lon="-2.13033">
        <ele>0.531</ele>
        <time>2011-08-09T10:20:50Z</time>
      </trkpt>
      <trkpt lat="46.83073" lon="-2.13045">
        <ele>1.835</ele>
        <time>2011-08-09T10:20:54Z</time>
      </trkpt>
      <trkpt lat="46.8307" lon="-2.1307">
        <ele>2.088</ele>
        <time>2011-08-09T10:20:56Z</time>
      </trkpt>
      <trkpt lat="46.83055" lon="-2.1307">
        <ele>1.137</ele>
        <time>2011-08-09T10:21:00Z</time>
      </trkpt>
      <trkpt lat="46.83017" lon="-2.13147">
        <ele>0.904</ele>
        <time>2011-08-09T10:21:09Z</time>
      </trkpt>
      <trkpt lat="46.83013" lon="-2.13156">
        <ele>0.7</ele>
        <time>2011-08-09T10:21:11Z</time>
      </trkpt>
      <trkpt lat="46.82993" lon="-2.13179">
        <ele>2.322</ele>
        <time>2011-08-09T10:21:15Z</time>
      </trkpt>
      <trkpt lat="46.82961" lon="-2.13183">
        <ele>1.607</ele>
        <time>2011-08-09T10:21:20Z</time>
      </trkpt>
      <trkpt lat="46.82796" lon="-2.13186">
        <ele>0.364</ele>
        <time>2011-08-09T10:21:41Z</time>
      </trkpt>
      <trkpt lat="46.82639" lon="-2.13182">
        <ele>1.219</ele>
        <time>2011-08-09T10:22:04Z</time>
      </trkpt>
      <trkpt lat="46.82514" lon="-2.13183">
        <ele>1.262</ele>
        <time>2011-08-09T10:22:26Z</time>
      </trkpt>
      <trkpt lat="46.82389" lon="-2.13176">
        <ele>2.653</ele>
        <time>2011-08-09T10:22:52Z</time>
      </trkpt>
      <trkpt lat="46.82297" lon="-2.13145">
        <ele>2.055</ele>
        <time>2011-08-09T10:23:14Z</time>
      </trkpt>
      <trkpt lat="46.82221" lon="-2.13118">
        <ele>2.188</ele>
        <time>2011-08-09T10:23:33Z</time>
      </trkpt>
      <trkpt lat="46.82189" lon="-2.13109">
        <ele>1.071</ele>
        <time>2011-08-09T10:23:42Z</time>
      </trkpt>
      <trkpt lat="46.82189" lon="-2.13109">
        <ele>1.151</ele>
        <time>2011-08-09T10:23:45Z</time>
      </trkpt>
      <trkpt lat="46.82189" lon="-2.13109">
        <ele>0.361</ele>
        <time>2011-08-09T10:23:51Z</time>
      </trkpt>
      <trkpt lat="46.82189" lon="-2.13109">
        <ele>-0.028</ele>
        <time>2011-08-09T10:24:04Z</time>
      </trkpt>
    </trkseg>
  </trk>
  <trk>
    <name><![CDATA[ACTIVE LOG122405]]></name>
    <trkseg>
      <trkpt lat="46.82189" lon="-2.13109">
        <ele>0.667</ele>
        <time>2011-08-09T10:24:05Z</time>
      </trkpt>
      <trkpt lat="46.82189" lon="-2.13109">
        <ele>-7.039</ele>
        <time>2011-08-09T10:24:06Z</time>
      </trkpt>
    </trkseg>
  </trk>
</gpx>